GFSNW_925_thetae_036.txt.gz
Theta_e
302 301 301 300 300 302 303 302 315 304 303 314 313 314 311 310 313 312 309 309 311 313 312 314 314 312 312 310 310 313 310 314 316 314 309 309 311 313 311 315 314 311 313 312
302 301 300 300 300 301 303 307 307 303 305 315 315 312 312 312 312 312 311 309 309 309 312 314 311 312 308 309 311 312 311 313 315 314 312 310 312 312 310 308 310 314 314 312
301 300 300 300 299 300 301 305 313 309 308 306 312 313 313 313 311 312 309 309 310 309 310 310 311 311 311 308 309 310 309 310 313 313 314 313 314 312 310 311 314 313 312 311
301 300 300 299 298 298 301 304 304 304 312 310 309 310 312 313 314 312 309 309 310 310 311 311 311 311 310 309 311 310 311 315 310 310 310 311 312 312 311 312 312 314 311 310
300 300 299 299 297 297 302 304 304 303 306 305 307 308 313 313 314 313 311 310 310 311 312 310 312 311 312 312 311 311 309 314 310 312 310 310 312 311 311 311 311 311 311 312
300 300 299 298 297 294 299 299 301 303 304 306 308 309 310 312 311 312 312 309 313 313 313 312 310 310 310 311 311 311 312 312 313 315 310 311 314 312 312 312 311 311 313 312
300 299 299 298 298 295 294 295 298 303 306 305 307 306 306 308 310 313 313 311 312 311 307 308 308 309 310 310 309 310 312 313 313 314 312 317 312 310 311 312 311 310 311 311
299 299 298 298 299 297 294 294 296 300 301 302 302 304 305 307 308 311 312 312 311 310 311 313 313 313 312 311 310 310 310 312 315 315 314 313 311 310 311 314 318 311 311 311
299 298 298 298 298 298 296 295 294 296 298 299 300 302 303 307 310 311 312 311 309 310 314 314 314 316 313 314 314 312 311 311 313 312 313 316 313 315 311 313 321 314 311 312
299 298 298 298 299 298 297 296 295 294 295 294 298 301 303 305 307 309 308 310 313 309 315 314 312 314 311 315 313 314 314 314 315 314 312 313 311 314 313 322 320 313 313 314
299 299 298 298 298 298 298 297 296 295 296 295 294 294 297 298 297 306 304 310 310 311 315 314 314 312 312 313 312 312 313 314 316 314 314 313 310 312 317 316 312 311 311 311
299 298 298 297 297 297 297 297 296 295 295 296 294 294 294 294 295 295 295 301 304 311 314 313 313 314 311 314 315 310 314 312 312 312 312 310 310 313 312 311 311 311 310 308
299 298 299 298 298 298 299 297 296 295 296 296 295 296 295 294 294 294 296 296 301 303 299 308 312 315 313 315 314 314 312 310 313 313 313 311 310 310 309 308 310 308 307 307
298 298 298 296 297 298 298 297 297 296 295 296 295 292 293 293 293 293 294 295 296 295 296 306 311 313 310 314 311 313 312 311 313 313 313 312 311 311 310 309 308 308 308 306
298 298 297 297 298 298 297 297 296 296 296 296 295 294 294 293 293 293 293 293 294 295 296 301 311 310 310 308 309 312 310 313 314 315 313 313 312 310 308 309 307 305 306 306
298 297 297 297 297 296 295 295 293 294 295 295 294 294 293 292 293 293 293 294 294 295 296 298 303 307 311 314 314 311 309 308 309 311 309 311 311 308 306 304 303 303 304 304
298 297 297 296 296 296 295 295 293 293 293 294 294 294 294 296 293 293 294 294 296 296 296 298 303 310 310 311 313 310 308 308 307 306 306 308 307 308 302 301 301 301 301 301
297 297 295 295 296 296 295 294 294 294 293 293 293 295 296 295 297 296 294 294 295 296 301 302 305 308 310 313 311 308 306 305 304 303 301 301 300 300 300 299 300 301 302 301
296 295 294 296 295 294 294 294 295 294 293 294 295 297 300 297 301 300 297 297 297 298 304 308 309 312 314 312 309 307 304 304 303 299 298 299 300 299 299 298 300 301 301 299
295 292 294 296 294 293 293 295 296 295 295 294 296 297 299 299 303 303 302 301 303 307 308 308 310 312 304 301 301 302 299 298 297 300 301 298 298 300 299 298 299 299 300 300
295 294 294 293 292 294 296 298 297 297 297 296 296 296 299 301 304 307 304 305 305 312 310 313 311 311 304 298 297 295 295 295 295 295 296 296 296 297 297 298 298 298 299 299
295 294 293 293 295 297 298 299 300 300 302 302 303 303 301 301 305 308 308 308 308 312 310 311 312 305 296 296 295 294 294 294 295 295 296 296 295 296 296 297 296 296 296 298
293 293 295 295 296 300 300 301 302 302 299 299 298 299 302 303 305 306 307 308 311 305 311 312 308 298 295 294 294 293 293 293 294 294 293 293 294 294 294 296 294 293 294 293
292 291 291 296 298 299 299 300 299 298 297 297 297 298 303 303 304 306 309 308 307 311 311 310 303 297 295 293 293 293 293 292 292 292 292 292 292 292 292 293 294 293 292 292
290 290 292 294 295 294 295 294 296 296 296 297 297 298 302 303 305 307 307 309 310 309 308 305 299 294 294 293 293 293 292 292 292 291 291 291 290 290 291 290 292 293 291 290
289 290 291 291 292 295 293 293 294 295 295 295 297 300 304 307 306 308 309 308 308 308 303 298 295 294 292 292 291 291 290 289 289 290 289 289 289 289 289 289 288 288 291 291
287 289 288 290 290 291 292 293 294 293 295 298 298 302 305 302 307 306 305 308 307 301 297 294 295 294 292 290 289 289 288 287 287 288 288 287 287 287 288 288 287 286 287 289

GFSNW_925_thetae_042.txt.gz
Theta_e
302 302 301 301 301 299 301 307 315 307 308 317 318 318 315 312 313 312 311 312 313 314 314 315 315 315 315 313 313 314 313 314 318 317 312 314 316 318 317 318 317 312 312 312
302 302 301 301 301 300 301 307 310 309 310 319 314 313 313 314 313 313 313 312 312 312 313 314 314 314 312 312 313 313 313 314 314 315 313 312 314 314 317 316 314 319 318 311
302 301 301 301 301 299 302 307 312 313 313 312 315 314 314 314 313 314 311 312 311 312 313 312 314 314 312 311 312 310 311 313 314 313 315 314 314 314 313 312 315 316 314 311
301 300 300 300 297 301 302 307 307 306 313 313 311 314 315 314 316 314 312 312 312 312 313 312 313 313 312 311 311 311 313 313 309 312 312 314 315 314 314 312 313 313 315 313
300 300 300 300 297 298 301 303 303 303 307 308 311 311 314 315 315 314 314 312 312 311 312 312 312 312 312 312 311 312 312 313 312 310 312 312 312 312 312 313 313 312 312 311
300 300 300 300 298 297 297 296 300 303 305 308 311 311 312 313 314 314 313 313 312 312 315 313 312 310 310 311 311 312 312 311 310 312 312 312 312 312 311 312 311 312 313 311
300 300 300 300 299 298 297 297 298 301 304 304 305 307 308 310 311 312 313 311 314 311 310 310 311 311 311 311 311 310 312 313 311 309 312 312 313 312 312 311 311 310 311 311
300 300 300 299 299 298 298 297 297 298 299 297 302 301 303 305 310 311 314 314 312 310 312 312 313 313 313 312 311 311 310 312 313 314 311 312 312 312 312 313 314 310 310 310
299 299 299 299 298 298 299 298 297 297 298 298 295 296 301 305 307 311 313 312 312 312 314 315 314 316 314 314 313 311 311 311 312 315 312 315 318 312 311 312 321 314 310 310
299 299 299 299 298 298 298 299 296 297 299 299 297 298 299 300 303 305 309 306 312 312 314 316 314 313 312 314 312 314 313 312 313 315 314 311 313 312 313 320 319 314 311 312
299 299 299 299 299 299 298 298 297 296 297 297 297 297 296 296 297 299 299 306 310 312 314 315 315 311 310 311 311 311 312 312 314 313 315 312 314 315 318 315 314 312 312 312
299 298 298 298 297 298 298 298 297 297 297 297 297 296 296 296 296 296 297 299 299 304 310 312 313 312 309 310 312 309 311 310 311 310 311 310 310 312 311 311 312 313 310 309
299 299 298 298 298 298 298 299 298 296 297 297 296 297 296 296 296 296 296 298 299 300 296 301 309 314 312 311 311 311 310 310 310 311 310 310 309 311 310 311 311 309 309 308
299 298 298 298 298 298 299 297 298 297 297 296 296 295 295 295 294 295 295 296 297 296 297 299 303 312 310 312 311 311 311 309 310 310 310 313 311 309 309 309 308 308 309 309
298 298 298 298 298 297 296 296 296 296 296 297 296 296 295 294 294 295 295 295 295 296 297 298 300 304 306 310 310 311 310 311 311 310 309 309 311 309 309 309 310 306 306 306
297 297 298 298 297 294 297 297 293 294 295 296 296 296 295 294 296 294 295 295 295 295 296 297 297 299 301 304 311 310 309 309 309 310 311 310 309 308 307 308 306 305 304 303
298 298 297 295 295 296 297 296 294 294 294 295 296 296 296 296 295 295 295 295 296 296 297 296 295 296 302 305 306 307 309 309 309 309 309 310 308 307 303 302 302 302 302 302
297 296 295 294 295 296 296 294 294 294 294 294 295 297 298 296 298 297 296 295 295 296 295 295 295 296 297 301 304 308 309 309 308 305 302 302 301 301 301 301 301 301 301 301
295 294 295 296 296 296 295 294 294 295 294 297 297 298 302 297 299 299 295 295 295 295 297 296 297 299 300 300 299 305 307 308 306 302 302 301 301 301 302 301 301 301 301 300
295 294 295 297 295 292 293 295 296 294 295 295 295 298 299 300 301 302 298 297 299 298 298 299 299 304 300 305 305 304 302 301 301 302 300 297 296 300 300 299 298 299 299 299
296 296 296 294 294 295 297 298 298 299 299 297 297 298 299 299 301 303 300 303 301 303 305 303 308 309 305 300 299 299 298 298 298 298 298 298 298 297 297 297 298 298 298 296
294 294 294 294 296 297 298 301 301 301 303 301 301 299 298 299 300 302 303 304 303 309 305 308 312 305 299 298 297 296 296 297 298 298 297 296 296 296 296 296 296 296 295 294
294 293 293 297 296 294 298 299 300 300 301 300 298 298 298 299 301 302 303 307 310 305 309 311 306 300 297 296 296 295 295 296 297 296 295 296 295 295 294 293 295 295 295 293
293 291 290 295 297 298 298 298 298 298 297 298 297 298 298 300 302 304 307 309 306 310 311 311 302 299 296 295 296 295 295 295 295 294 294 293 293 292 293 292 291 292 294 294
291 291 293 293 296 294 294 292 293 295 296 296 296 297 298 299 302 305 305 309 309 310 310 305 298 296 296 295 295 294 293 293 292 292 292 292 291 291 291 290 289 289 289 291
290 290 292 294 292 293 293 291 291 293 295 293 297 298 301 302 303 305 309 309 310 307 302 300 296 295 294 294 293 292 291 290 291 291 291 290 289 289 289 290 289 288 288 287
288 289 292 291 290 291 292 293 293 294 292 296 296 298 301 297 303 306 305 306 303 300 299 295 294 294 292 291 291 290 289 288 289 290 289 289 287 287 286 285 284 286 288 287

GFSNW_925_thetae_045.txt.gz
Theta_e
302 301 301 302 301 300 300 301 308 306 307 310 312 306 312 311 312 311 311 310 312 312 313 314 313 314 314 311 311 314 313 314 317 316 315 315 316 316 314 313 315 308 309 310
302 301 301 301 301 301 301 299 303 307 307 316 310 311 313 313 313 312 312 311 311 311 312 313 312 312 311 311 311 312 312 311 316 316 312 313 317 315 317 314 311 312 312 309
301 301 301 301 298 299 301 301 305 304 306 306 313 313 312 314 312 313 310 311 310 311 312 310 312 312 311 310 311 310 310 311 308 310 310 312 312 315 316 315 312 315 313 310
301 300 300 300 298 299 302 299 305 302 307 307 307 310 314 314 315 312 311 311 311 311 311 311 312 312 311 310 310 310 310 307 306 310 313 312 313 313 314 314 313 315 314 308
301 300 300 300 298 296 296 298 298 299 302 304 307 309 313 315 315 313 314 311 311 310 313 311 311 311 310 310 310 310 309 307 307 304 310 311 312 311 312 313 312 311 311 311
300 300 300 300 298 297 296 296 297 299 303 302 307 309 309 311 312 313 312 311 311 311 314 312 310 308 307 308 309 309 311 304 302 306 311 311 309 310 310 311 312 312 313 311
300 300 299 298 299 298 297 297 296 295 299 297 300 300 301 303 307 310 310 311 313 310 307 308 308 308 308 308 308 307 311 309 304 306 308 309 308 310 309 310 310 310 310 309
299 298 299 298 298 298 298 297 296 294 295 296 297 295 297 301 305 309 311 313 311 308 310 311 311 311 311 311 309 309 310 311 308 308 311 308 311 312 311 310 311 309 309 308
299 299 299 299 298 298 298 298 296 294 295 296 295 296 298 299 302 308 310 308 304 310 311 313 315 315 312 313 312 310 310 310 308 313 311 313 315 311 310 312 317 312 309 308
299 299 299 299 299 299 298 299 298 296 295 296 296 297 297 297 297 300 306 301 305 309 311 313 313 311 310 312 312 312 313 311 311 313 313 310 308 311 311 319 317 313 309 308
299 298 298 298 297 297 298 298 298 297 295 294 296 296 296 295 295 297 297 303 306 309 313 312 311 309 308 309 308 310 310 309 309 310 313 310 311 314 316 314 312 312 311 310
299 298 298 298 298 298 298 298 298 297 296 294 296 296 296 296 295 295 294 298 299 303 308 309 310 311 306 307 310 307 310 308 309 308 308 306 310 312 311 310 311 311 309 308
299 299 299 298 298 299 298 298 297 296 297 293 293 295 296 295 295 296 295 297 299 299 296 301 305 313 310 309 308 308 308 306 308 309 309 308 308 310 309 310 310 309 308 307
299 297 298 298 298 297 298 296 297 297 296 294 293 295 295 295 295 295 296 296 296 296 296 297 300 306 307 310 308 307 307 307 308 308 308 309 309 308 308 308 306 306 306 306
297 297 298 299 297 297 295 295 294 296 295 296 295 295 294 294 294 295 295 295 295 295 296 295 298 300 302 302 306 307 308 309 309 309 307 307 307 307 307 307 307 306 306 306
297 298 298 297 295 294 297 295 293 294 294 293 294 295 294 294 296 294 294 295 294 294 295 295 295 297 298 299 303 306 307 307 307 307 308 307 306 305 306 306 304 303 303 303
297 297 296 294 295 296 295 295 294 294 294 294 292 294 295 296 295 294 294 294 295 294 294 295 293 294 298 300 300 300 302 305 305 307 307 308 307 306 301 301 301 302 301 301
296 295 294 295 295 296 295 294 294 294 293 292 289 292 295 296 297 296 293 293 293 293 294 293 294 293 293 295 295 296 299 305 305 303 302 303 300 299 300 300 300 300 300 299
295 294 295 296 295 295 294 293 294 293 294 296 294 296 296 298 298 299 295 294 295 293 294 294 295 296 297 296 296 296 297 303 303 302 300 299 300 300 300 300 299 299 299 298
295 294 295 293 295 293 293 295 296 293 293 294 294 296 298 299 300 302 297 296 295 293 295 295 297 296 297 297 298 302 299 299 300 301 299 296 295 298 299 298 297 297 297 297
296 293 292 294 294 295 295 295 295 298 295 296 295 297 298 297 299 300 300 298 298 294 299 299 303 309 302 299 300 299 300 299 298 297 297 297 297 297 297 297 298 297 297 295
293 293 293 294 295 295 290 288 296 297 298 299 299 298 297 298 299 301 301 303 303 302 300 304 310 305 299 297 296 296 296 298 298 297 296 296 296 296 296 296 296 296 295 294
294 292 287 289 287 290 288 290 290 290 293 292 293 295 297 297 299 302 302 305 307 304 307 310 307 300 297 296 295 295 295 297 296 296 295 295 294 293 293 292 293 293 294 293
287 282 287 287 287 287 289 289 286 291 290 291 294 293 296 298 300 303 305 307 306 306 310 308 302 297 295 295 295 295 295 295 294 294 293 293 292 291 291 290 290 289 289 291
285 284 288 286 289 283 284 290 286 287 289 289 291 295 297 297 299 302 304 307 308 307 305 304 299 296 295 295 294 293 293 293 292 292 291 291 290 290 289 289 289 288 288 288
282 282 285 287 283 282 284 281 284 286 291 286 292 294 299 299 301 302 306 308 303 304 302 299 296 295 294 293 292 291 289 289 290 290 290 289 288 287 287 286 284 287 287 287
281 283 287 284 281 284 284 289 289 291 288 286 292 295 294 293 298 301 302 302 301 301 300 296 295 293 293 291 290 290 288 288 289 289 289 288 287 286 285 284 284 286 286 287

GFSNW_925_thetae_051.txt.gz
Theta_e
302 302 302 302 302 301 301 299 305 305 305 310 310 301 308 311 311 310 310 309 311 311 311 314 312 316 314 312 313 314 310 311 314 315 314 315 316 317 314 318 315 306 306 310
300 301 301 301 302 300 301 299 302 305 306 313 306 306 311 311 312 311 311 309 309 309 310 312 311 311 309 313 311 312 311 311 315 316 313 313 318 317 315 313 308 309 310 312
300 299 299 299 299 296 302 298 301 302 306 308 308 309 310 311 311 311 309 309 308 309 310 308 311 311 309 309 309 311 310 309 309 312 309 310 317 316 317 317 315 315 312 311
300 298 298 298 298 296 300 294 299 298 307 306 305 308 309 312 314 311 310 309 309 309 310 310 311 310 310 309 310 309 307 307 305 307 309 309 310 313 315 318 317 318 316 312
299 299 298 298 298 297 295 294 295 296 297 299 304 305 309 309 308 312 313 310 310 308 311 310 310 309 309 310 308 309 305 305 303 304 307 310 311 309 312 314 315 316 315 313
298 299 298 298 297 297 294 294 295 295 296 295 302 297 302 304 305 312 309 309 309 311 310 307 308 306 306 307 307 308 307 303 300 302 306 308 308 308 308 311 313 314 317 315
298 299 299 298 298 297 296 295 293 292 295 296 295 296 299 301 304 307 308 310 312 310 307 306 306 305 304 306 306 306 305 303 299 300 305 305 306 305 306 308 308 310 311 310
298 298 298 298 298 298 297 296 294 292 295 294 296 296 297 298 300 304 308 310 304 301 308 308 309 308 310 309 307 307 305 306 304 304 302 305 307 309 308 308 309 306 308 309
298 298 298 297 297 297 298 297 296 292 294 295 295 296 296 295 295 299 305 303 298 307 309 310 310 309 308 310 311 307 308 306 305 308 309 310 306 312 308 308 311 310 307 305
298 298 298 297 298 297 297 297 297 294 293 293 295 294 295 294 294 295 299 296 300 305 310 313 311 306 307 310 310 311 311 311 311 312 312 309 305 304 308 313 310 310 309 305
299 298 298 298 298 298 297 297 296 295 293 292 295 295 295 294 293 295 295 302 301 306 311 310 309 308 305 307 307 308 309 308 310 310 313 310 305 310 312 308 309 310 308 306
299 299 298 298 298 298 297 297 297 295 293 293 295 295 295 295 295 293 293 297 300 301 306 307 308 310 305 304 307 304 309 306 307 307 308 305 304 308 308 308 309 310 309 308
299 298 297 298 299 298 296 297 296 295 295 291 291 293 295 295 295 295 294 296 297 297 296 299 303 307 309 310 306 305 305 303 306 306 306 304 304 304 306 308 309 309 307 308
298 297 297 298 297 296 295 295 295 296 293 290 293 294 294 294 295 295 295 296 295 295 294 297 298 302 302 307 305 307 307 306 306 304 304 303 304 304 304 307 307 307 306 306
297 297 298 297 296 295 294 294 294 295 291 292 293 293 294 294 294 295 295 295 295 295 295 295 297 297 298 298 299 302 303 304 306 307 305 302 303 302 303 305 306 305 305 305
297 296 296 295 294 294 295 292 294 294 294 287 290 292 293 294 295 294 295 295 294 294 295 294 293 294 297 295 297 297 297 300 301 301 301 300 301 303 302 303 304 303 303 303
296 295 295 295 295 295 293 293 294 294 293 288 287 289 293 295 294 293 293 293 293 292 293 294 293 292 293 296 297 295 294 293 292 293 295 297 303 303 301 302 301 302 300 300
295 295 295 295 295 294 293 293 293 293 293 287 284 289 291 296 295 296 293 293 293 294 294 293 294 293 292 294 294 293 293 293 292 293 296 298 299 300 299 299 299 299 298 298
295 295 295 294 293 292 293 294 294 293 292 286 284 290 292 295 295 297 294 293 294 292 293 294 293 294 295 296 296 297 297 297 295 297 296 297 300 301 300 300 299 298 298 297
295 295 294 291 293 294 294 295 295 294 293 286 286 289 292 292 295 295 296 295 295 292 295 293 295 295 295 298 299 297 296 298 298 297 299 298 297 299 299 298 297 297 296 295
295 292 289 293 294 295 294 296 294 292 290 295 293 293 293 293 298 299 298 297 296 296 295 296 296 302 302 298 296 297 296 296 298 298 296 295 297 297 297 298 297 296 296 295
293 293 294 294 289 286 286 284 289 290 291 293 296 295 293 292 295 300 300 299 300 300 296 299 303 301 299 297 295 295 294 295 297 295 295 293 294 295 297 296 295 295 294 293
293 291 285 288 284 286 283 285 285 286 287 287 289 288 290 294 295 298 301 301 303 300 301 305 302 300 298 296 295 295 294 293 294 294 292 292 292 291 291 290 289 290 290 291
286 285 286 285 284 283 285 286 285 287 290 287 291 289 292 292 293 298 301 302 304 303 301 301 296 298 297 296 295 294 294 294 293 292 291 291 290 290 289 289 288 288 288 287
287 286 287 283 284 284 285 285 287 284 286 288 289 288 293 296 296 295 300 302 295 300 299 297 295 296 296 295 295 293 291 291 292 290 291 290 289 288 288 286 285 288 287 287
283 281 284 285 282 278 287 286 284 283 287 285 287 286 293 295 296 297 297 292 290 292 291 291 293 295 294 293 293 293 291 288 291 290 290 290 289 287 286 284 284 286 286 286
282 284 286 282 281 283 283 287 288 288 287 286 284 285 289 291 293 295 296 290 288 286 290 289 291 291 292 291 291 291 291 288 289 290 290 289 288 287 286 284 284 284 285 285

GFSNW_925_thetae_057.txt.gz
Theta_e
300 299 299 300 299 298 303 300 309 305 305 308 310 311 309 310 310 308 309 308 310 313 315 316 313 313 313 312 312 311 309 311 316 316 313 314 314 313 311 314 312 307 308 312
299 299 298 298 298 299 302 299 305 305 305 310 309 307 309 310 310 309 309 308 308 308 309 312 311 311 310 310 310 311 309 309 316 315 313 312 316 316 313 310 308 307 315 314
299 299 298 298 297 300 302 297 300 302 307 306 307 308 309 310 309 309 307 307 306 308 308 307 310 311 310 310 312 312 309 307 307 311 309 311 316 315 316 316 318 316 314 314
299 299 298 297 297 298 298 292 298 297 299 302 304 306 307 310 310 308 306 308 308 308 309 309 310 309 309 309 312 310 310 308 304 308 308 311 312 313 315 315 315 316 315 313
299 299 298 297 297 296 295 293 295 293 294 294 302 303 307 306 305 308 310 310 308 307 309 308 310 308 308 309 307 310 305 308 304 305 307 308 310 309 310 313 313 314 314 314
299 299 298 297 297 296 293 292 294 293 294 294 302 297 300 306 305 308 308 309 308 309 309 307 306 304 303 305 306 306 305 303 301 305 304 305 307 308 309 310 310 313 315 313
299 298 297 297 297 297 296 294 291 293 296 294 296 296 298 300 302 305 307 306 309 306 299 302 305 303 303 304 303 303 303 302 303 301 303 305 305 303 305 307 307 308 310 310
298 297 297 297 297 297 297 295 292 291 295 294 296 295 295 296 296 300 307 304 299 296 306 308 308 307 309 307 306 305 302 303 303 305 303 304 306 308 306 307 309 304 305 306
297 297 297 297 297 296 296 295 294 292 294 294 294 294 293 293 293 299 303 302 297 304 307 308 309 308 308 309 309 306 306 304 305 305 305 307 302 308 306 306 310 307 305 307
297 297 298 298 297 297 296 295 295 293 293 292 292 293 294 293 292 293 295 296 299 304 307 311 311 307 305 309 308 309 309 310 307 307 307 307 303 304 304 310 308 307 309 308
298 297 298 298 297 297 296 295 295 294 291 292 293 293 293 293 291 293 292 299 301 306 309 309 308 307 303 304 304 306 307 307 308 308 309 308 303 307 310 305 305 306 306 307
298 298 298 298 297 296 296 295 294 295 292 292 294 294 294 294 294 292 290 297 301 299 306 305 308 308 307 302 306 300 307 304 305 305 306 302 302 304 301 300 301 303 303 304
298 298 298 298 296 296 295 294 294 294 290 290 292 292 293 294 294 294 292 293 295 297 295 299 303 308 307 308 308 306 303 301 304 305 304 302 301 301 298 295 295 299 302 303
299 299 299 299 295 295 295 295 294 293 290 292 293 293 293 294 294 295 295 294 294 293 291 295 297 301 297 305 301 302 302 302 302 302 301 299 301 296 295 295 294 299 300 300
299 299 299 297 295 294 294 294 294 294 293 293 292 292 293 293 294 294 295 294 292 291 290 290 296 296 297 296 296 298 297 298 299 300 297 298 296 295 295 294 294 298 297 298
299 299 298 296 294 294 295 292 294 294 293 290 292 290 292 293 293 293 293 293 291 291 293 292 293 293 295 297 298 295 293 292 292 295 294 296 295 294 293 292 295 296 297 297
299 298 297 295 294 294 293 293 294 293 293 290 286 287 291 293 292 291 290 291 290 290 291 294 292 292 294 297 297 295 294 297 297 296 296 296 295 298 297 296 296 297 297 298
297 297 296 294 294 293 293 293 293 293 291 286 282 284 289 294 293 296 291 291 290 290 292 292 293 293 292 295 294 295 297 297 297 296 295 295 297 298 297 297 296 296 297 297
297 296 295 293 292 292 294 293 294 294 292 285 284 287 284 290 292 297 294 291 294 291 293 293 293 294 296 298 297 297 297 296 296 295 295 296 297 297 295 295 296 297 299 298
296 295 292 292 292 294 294 294 290 288 287 287 287 290 286 288 289 292 295 292 293 288 294 292 295 296 295 294 295 296 296 295 294 294 295 295 296 294 292 294 296 296 297 297
295 291 292 292 293 293 289 287 288 288 287 288 288 287 288 290 290 292 295 297 289 286 292 295 293 296 296 295 295 294 293 294 294 293 294 294 294 293 292 294 294 292 291 292
294 293 294 293 287 285 286 281 286 288 288 290 290 291 291 291 293 296 298 295 296 293 291 291 292 294 292 292 293 293 292 292 293 293 293 292 292 291 291 291 290 289 289 290
294 291 287 288 284 286 285 287 285 286 286 288 286 285 289 291 294 293 296 297 296 294 297 294 292 293 295 292 291 291 292 292 292 292 291 291 291 290 290 289 287 287 288 287
290 289 287 285 286 284 284 286 285 286 289 288 288 285 291 292 294 295 296 295 300 300 292 291 285 288 293 291 291 291 289 289 289 289 290 290 290 289 289 287 285 285 287 287
289 288 288 285 286 284 282 282 285 288 289 288 288 285 289 286 292 296 294 294 299 292 290 286 285 285 287 288 288 288 287 286 286 289 289 289 290 289 289 288 287 284 285 286
286 284 288 288 286 286 289 286 283 284 287 288 285 284 284 288 290 294 292 290 289 289 283 285 289 286 286 286 286 286 286 286 287 288 289 289 290 290 289 288 288 285 284 284
287 286 288 285 285 286 285 287 288 287 288 286 284 285 287 289 292 293 293 293 288 284 288 290 290 286 286 285 284 285 285 286 286 287 289 289 289 289 288 288 287 286 284 284

GFSNW_925_thetae_060.txt.gz
Theta_e
299 299 298 299 301 298 304 306 310 305 305 310 311 313 310 310 312 310 310 313 312 315 315 315 314 316 316 314 312 313 311 317 320 320 315 316 316 317 317 318 319 316 316 316
299 299 298 298 298 298 302 308 307 304 306 312 311 309 310 311 312 310 310 311 310 309 313 316 314 313 312 312 312 313 312 316 319 318 315 314 318 317 316 315 315 319 319 315
299 299 298 298 297 300 302 306 309 306 307 308 308 311 312 312 310 310 309 310 308 310 312 311 313 314 311 312 313 311 311 313 315 317 317 316 316 317 317 317 320 317 317 315
298 299 298 298 297 301 301 301 306 304 308 307 308 309 310 313 313 311 310 311 310 310 312 312 313 313 312 312 312 313 313 316 311 310 313 314 315 316 316 318 316 318 316 316
298 299 298 297 297 299 296 301 303 299 300 300 307 308 310 310 308 311 312 312 311 310 312 311 312 312 312 315 312 314 311 315 310 311 309 311 313 313 314 315 316 316 315 315
299 299 298 297 297 297 297 294 295 300 297 302 308 305 305 307 307 310 310 311 311 313 311 308 309 308 307 310 313 313 313 312 314 315 308 309 311 310 311 312 314 314 316 314
299 298 297 297 297 297 297 295 297 301 301 302 302 300 301 306 305 307 309 307 311 306 302 304 307 307 307 308 307 308 310 311 311 313 309 314 307 305 307 309 309 310 312 311
298 298 297 297 297 297 297 294 296 299 299 299 298 298 298 299 301 304 306 306 302 301 307 311 312 312 311 309 308 308 308 310 311 314 312 310 311 310 310 311 313 310 311 313
298 297 297 297 296 296 297 295 294 298 299 298 297 297 296 299 301 306 305 302 299 307 311 312 312 313 311 313 311 308 307 308 311 310 312 311 310 310 308 308 314 310 310 311
298 297 297 297 297 296 295 295 295 297 298 295 295 298 298 296 296 301 299 297 305 307 312 313 313 312 307 313 311 312 312 311 313 312 312 310 307 307 306 313 313 307 307 308
298 298 298 297 296 296 296 294 294 296 297 295 295 295 296 295 296 302 297 303 304 307 312 313 312 312 308 309 307 310 311 312 312 311 312 312 306 308 311 306 303 302 302 303
298 298 298 297 296 296 295 295 294 295 296 296 294 294 294 295 295 296 296 301 301 300 307 309 309 309 310 309 311 304 311 308 310 310 310 305 303 305 302 298 298 299 298 300
298 299 298 297 296 296 295 294 294 295 296 294 295 294 293 293 294 294 297 297 297 298 297 303 306 308 307 310 310 309 306 305 309 309 306 302 301 302 299 300 299 298 297 299
300 300 298 296 295 295 295 295 294 293 296 299 295 293 293 293 295 295 294 296 295 295 297 300 303 306 300 307 304 306 304 303 301 303 303 301 302 301 299 299 298 297 297 299
300 301 299 295 295 295 295 294 294 294 297 299 296 292 292 293 294 295 295 295 296 296 299 300 302 299 301 299 299 301 299 299 301 302 300 299 299 298 298 298 298 298 299 299
299 300 298 295 294 294 295 297 294 294 293 299 299 292 294 293 293 294 294 294 295 295 297 297 296 295 298 299 299 298 297 296 297 299 298 297 298 297 297 297 297 298 297 298
299 298 296 294 294 294 295 297 294 293 294 298 296 297 293 293 293 293 294 293 295 295 296 296 296 295 296 299 300 297 298 298 298 298 297 297 297 297 296 297 297 297 297 296
299 298 296 294 294 294 294 293 293 293 292 293 296 294 296 293 297 297 294 295 295 295 295 295 296 295 295 297 297 297 298 298 297 297 296 296 296 296 297 295 295 296 296 297
297 296 294 294 293 294 293 293 293 293 293 295 294 297 296 293 295 297 295 294 297 294 296 296 295 297 299 300 298 298 297 297 297 296 295 295 296 296 295 294 294 296 297 297
296 294 293 296 293 293 294 294 295 295 294 293 293 292 295 294 295 297 296 295 297 298 296 295 297 300 298 298 298 297 297 295 294 294 294 295 294 294 293 292 293 294 294 294
294 293 293 292 293 293 292 294 296 293 295 294 292 292 295 293 296 297 297 297 295 299 298 298 300 301 300 298 298 296 295 295 294 293 293 293 293 293 292 291 292 291 290 291
294 294 293 292 290 290 291 287 291 294 296 294 296 295 293 294 294 297 298 297 297 300 295 297 300 300 297 297 297 296 295 294 294 293 293 292 291 291 291 290 290 288 288 289
294 292 291 293 288 290 293 290 292 295 293 292 293 293 293 293 295 295 297 298 299 296 299 300 300 298 297 296 294 293 292 292 291 291 291 291 292 291 291 290 290 286 287 288
294 294 290 294 293 292 291 294 295 291 292 291 292 293 294 293 294 295 297 298 299 301 300 300 298 296 295 292 291 290 290 290 289 289 289 289 290 291 291 290 288 287 287 287
292 294 292 291 288 287 287 286 291 290 290 291 291 292 293 293 295 296 296 297 298 299 300 297 295 293 292 291 290 289 289 289 288 288 288 288 289 290 290 290 289 287 285 286
290 289 291 289 292 289 290 288 289 289 290 289 291 291 293 294 294 296 296 295 296 297 294 294 292 292 291 291 290 289 287 287 287 287 287 287 289 290 290 290 289 287 285 286
292 290 290 290 292 293 290 290 290 288 292 294 291 291 291 292 293 294 294 295 296 296 294 292 292 292 291 290 289 288 287 287 286 286 285 286 287 288 289 289 289 287 286 285

GFSNW_925_thetae_063.txt.gz
Theta_e
303 300 299 299 300 299 304 309 310 307 306 312 312 314 313 311 313 311 312 314 315 315 316 315 315 318 317 314 314 316 314 318 320 321 317 317 317 317 316 318 320 317 317 317
303 299 299 298 299 303 307 310 307 307 307 314 314 312 313 313 313 312 311 314 312 311 315 317 315 316 313 314 314 315 314 319 321 320 317 316 319 318 317 317 318 320 319 316
301 299 299 298 298 300 305 309 308 308 308 309 311 313 313 314 312 311 311 311 311 312 314 314 316 315 314 314 314 311 312 316 318 320 319 317 318 317 317 318 321 318 317 315
300 299 299 298 298 298 305 307 309 309 309 310 310 312 313 314 314 312 311 312 312 312 314 315 315 314 314 314 313 314 315 319 314 313 315 316 317 316 317 319 318 319 316 315
299 299 299 298 297 301 303 304 306 305 309 308 311 311 313 314 313 313 313 313 313 312 314 314 314 314 315 315 314 316 313 316 313 315 311 312 314 314 315 316 316 317 316 316
299 299 299 298 297 301 301 299 300 306 304 308 310 310 312 312 311 312 312 313 313 314 311 310 310 310 310 313 315 316 316 314 316 318 311 310 312 311 312 313 314 314 316 314
299 299 298 297 297 299 301 301 303 305 306 308 310 306 308 308 309 312 311 310 313 308 306 307 309 309 310 311 310 312 315 315 315 316 311 315 309 307 308 310 310 310 311 312
299 299 297 297 297 297 299 298 301 304 305 306 302 303 305 307 305 309 310 308 306 307 309 312 313 313 312 311 311 310 311 313 314 316 314 312 312 310 311 312 313 312 312 311
299 298 297 297 297 296 298 298 298 302 304 303 302 302 304 308 310 309 308 305 304 310 313 313 312 313 313 313 312 309 310 311 312 312 313 312 313 310 309 310 314 309 309 309
298 298 297 296 296 296 298 297 298 301 301 298 298 302 302 300 303 310 306 305 309 310 313 313 312 312 310 313 312 313 312 312 313 313 313 311 309 308 308 312 313 306 305 304
298 297 297 297 296 296 298 296 297 301 300 297 297 297 299 298 300 306 301 306 308 310 314 313 313 312 310 311 310 311 311 312 311 311 313 312 307 310 311 307 304 303 302 302
298 297 297 296 296 296 297 297 296 298 299 297 295 294 294 296 296 300 301 305 305 306 310 310 310 310 310 310 312 307 312 310 311 311 312 307 304 306 304 302 302 302 301 301
299 298 297 296 296 295 297 297 297 297 298 298 298 296 295 295 295 295 301 301 301 301 301 307 308 309 308 311 311 310 308 307 310 310 308 307 303 304 302 302 301 301 300 299
301 300 298 297 296 296 296 297 296 299 300 300 297 294 294 294 296 296 297 298 297 298 301 305 307 308 304 309 307 308 307 304 305 305 304 303 304 304 302 301 300 300 300 300
301 300 299 296 295 296 296 295 295 296 302 301 298 295 294 295 296 296 297 297 298 299 302 304 306 303 303 302 302 305 303 303 303 303 302 301 301 301 300 299 299 299 299 298
300 298 295 295 295 296 298 300 295 295 298 301 300 295 296 295 296 296 296 296 297 299 300 300 299 297 301 303 302 300 300 298 299 300 300 299 299 299 298 298 297 297 297 297
299 296 295 294 295 295 298 300 296 294 297 300 299 298 296 295 295 296 296 296 297 298 299 299 298 298 299 301 302 300 299 299 300 300 299 299 298 298 297 297 296 296 296 296
298 295 295 295 296 295 296 294 293 294 296 300 301 298 298 295 297 298 296 297 298 298 298 298 298 297 297 300 300 299 299 298 298 299 298 297 296 296 296 295 295 295 295 295
297 295 295 295 295 297 295 294 294 294 298 300 301 302 300 296 297 297 297 297 300 296 299 298 297 300 300 301 300 298 297 297 296 295 295 294 295 295 295 294 294 293 294 294
294 295 297 298 294 293 295 296 300 299 298 298 297 296 298 298 298 297 298 298 300 301 300 297 299 302 301 300 298 297 296 296 296 295 295 294 294 293 293 293 293 292 293 292
295 296 294 292 294 295 296 298 301 297 300 298 296 297 297 295 299 298 298 298 298 302 301 300 303 303 301 299 297 296 296 295 295 295 295 294 294 293 292 293 293 292 292 291
295 295 293 293 294 295 298 295 295 299 300 297 298 296 297 295 296 297 298 298 297 303 297 299 302 302 300 298 297 295 293 293 293 293 293 293 292 292 292 292 291 291 290 288
293 295 295 298 292 297 301 296 297 299 297 295 295 296 296 295 295 296 297 299 300 298 299 301 302 299 296 295 295 293 292 292 291 291 290 290 290 290 291 292 292 291 291 290
300 299 295 299 296 299 300 303 302 296 297 296 296 295 296 294 296 296 298 299 299 299 300 301 300 297 296 295 294 292 292 291 291 290 289 289 289 289 290 292 292 291 291 290
296 300 297 295 291 291 291 293 294 294 295 295 295 295 296 296 297 297 298 298 299 300 301 300 297 295 294 293 292 292 292 291 290 289 289 289 288 288 289 291 291 291 290 289
295 293 293 291 294 293 294 295 293 293 294 294 296 296 296 296 297 297 298 298 298 300 299 297 294 294 293 292 291 291 290 290 289 289 288 288 287 288 288 289 289 290 290 289
296 294 293 295 297 296 295 295 293 293 295 298 297 296 295 294 296 296 296 297 299 298 296 294 294 293 291 291 290 290 289 288 288 288 287 286 286 286 287 288 288 289 289 288

GFSNW_925_thetae_069.txt.gz
Theta_e
305 308 309 305 304 301 305 307 307 307 307 308 310 312 311 311 312 311 313 314 314 315 314 315 316 316 315 313 313 314 313 314 315 317 315 314 317 317 316 317 317 313 312 312
304 311 307 304 303 304 306 307 307 307 307 306 311 312 312 313 313 311 312 314 312 315 314 316 316 314 314 313 314 314 313 310 316 313 312 314 318 317 316 314 313 315 312 311
306 310 306 304 304 304 308 304 307 308 306 305 309 311 312 313 311 310 310 311 311 311 313 314 314 314 314 313 313 312 311 314 310 310 311 314 317 317 317 314 309 316 316 312
310 308 305 302 300 306 307 305 304 304 308 306 307 310 311 314 313 311 310 311 311 312 315 314 315 313 315 314 313 313 313 311 307 312 313 314 315 316 316 314 314 313 314 314
306 306 304 302 299 305 305 305 305 303 303 305 307 308 311 313 313 312 311 312 311 311 313 311 313 313 314 314 313 314 310 309 308 308 311 311 313 312 313 314 315 315 315 314
308 306 303 301 304 305 302 301 301 302 306 305 306 308 310 314 311 311 310 311 311 311 309 307 307 307 309 311 312 314 312 306 305 309 309 308 308 308 311 313 313 313 315 312
307 305 302 301 303 305 302 300 300 301 305 304 307 309 310 312 309 311 309 307 310 307 306 306 307 308 307 308 309 311 312 310 306 304 306 306 307 306 307 310 310 309 308 309
306 304 303 302 301 303 301 301 301 299 302 302 306 307 306 306 306 308 308 305 304 305 307 309 309 309 310 310 308 309 310 311 308 308 307 309 310 308 309 311 311 307 307 305
305 304 303 301 300 301 301 300 300 299 301 299 297 305 305 305 306 307 307 305 305 308 310 310 311 310 310 311 311 308 308 307 306 307 307 311 309 307 307 307 312 304 303 302
304 302 301 302 300 302 299 299 300 298 296 295 297 300 303 302 304 304 306 306 308 308 309 311 308 307 308 310 310 310 309 308 307 308 305 308 307 306 307 307 305 301 300 300
303 302 300 302 302 303 298 298 299 298 294 294 295 295 297 297 298 304 300 305 305 307 310 309 309 308 306 308 308 308 308 307 308 307 311 309 302 306 309 302 299 300 300 299
302 301 300 301 303 300 298 298 297 297 294 293 295 295 296 296 296 297 299 302 303 303 305 306 304 306 305 305 308 305 309 306 307 306 306 302 302 300 298 297 298 298 298 298
301 299 299 299 300 298 298 297 296 296 293 292 292 293 295 296 296 297 299 298 300 300 298 302 303 307 304 307 307 306 306 304 306 306 305 303 298 297 297 297 297 297 297 296
300 300 300 300 299 298 298 297 298 298 295 294 294 295 295 296 297 297 298 297 297 297 297 299 302 304 301 304 304 304 304 303 302 302 300 298 298 297 297 297 296 296 296 296
302 299 298 298 298 297 297 299 299 300 296 295 294 294 295 296 297 297 297 297 296 296 297 295 299 298 300 298 298 300 300 301 301 301 298 298 298 297 296 296 296 296 296 296
300 299 297 298 298 298 299 295 298 297 297 293 294 295 294 295 296 296 295 295 294 294 296 296 295 295 295 297 299 298 296 296 296 297 297 297 297 297 295 295 294 295 294 294
300 299 298 298 297 298 298 297 297 299 297 293 293 292 294 296 295 294 293 295 293 294 294 295 294 295 292 296 298 297 295 296 296 296 296 297 296 295 292 292 293 293 293 292
299 297 297 296 297 296 295 295 297 298 299 292 290 293 293 295 294 295 293 294 293 293 294 294 294 294 293 296 296 296 295 294 293 292 293 293 292 291 291 291 291 291 290 290
298 296 296 297 297 296 296 295 296 297 294 294 290 290 290 293 297 295 294 293 297 293 296 296 295 296 294 296 296 294 294 294 294 293 292 292 292 291 290 290 289 289 290 289
297 296 297 296 294 294 295 298 294 293 292 291 290 287 293 296 297 297 298 296 298 293 296 293 296 296 295 293 293 293 293 293 293 287 290 290 289 290 289 290 289 289 289 290
296 294 295 294 295 295 294 294 291 293 293 290 288 288 293 293 296 297 296 297 298 299 296 295 299 301 295 292 291 290 289 290 290 291 291 289 289 287 287 288 289 289 288 288
296 294 294 294 293 291 290 287 293 296 294 293 293 294 291 292 293 294 295 296 297 300 295 297 298 298 295 293 292 291 290 289 289 290 289 289 289 289 288 287 287 287 287 288
295 293 291 290 286 289 288 291 294 291 292 291 290 289 291 292 294 296 296 296 298 296 298 298 298 296 293 291 288 290 290 290 290 289 289 289 288 288 287 287 287 287 287 287
294 291 291 288 287 289 295 294 292 291 291 292 291 290 292 293 294 295 287 297 296 291 290 291 292 294 291 290 289 289 288 287 287 287 287 286 286 286 287 286 286 285 285 285
289 289 289 287 290 289 290 289 291 289 291 291 291 290 291 292 290 293 292 294 286 290 290 293 287 289 288 289 289 288 287 283 282 287 286 286 286 285 285 285 285 285 285 285
287 286 289 291 289 288 290 291 293 289 291 288 290 290 288 291 289 289 287 287 287 289 286 287 287 287 288 287 287 286 287 287 287 287 286 286 285 285 285 285 285 285 285 285
288 289 290 290 290 290 290 290 291 290 291 290 289 288 290 290 288 291 287 287 287 287 286 284 288 288 287 286 286 286 286 286 286 286 286 285 285 285 284 281 286 287 286 285

GFSNW_925_thetae_072.txt.gz
Theta_e
301 301 302 304 306 303 306 306 309 306 306 308 310 310 311 311 313 311 313 314 312 309 311 314 314 315 314 311 312 313 313 311 314 317 314 313 316 317 313 309 312 310 309 310
300 301 302 305 305 304 306 306 308 306 307 309 309 311 310 312 312 312 313 315 313 314 313 314 313 313 313 311 312 312 312 308 305 309 311 312 317 316 314 312 310 311 310 311
301 300 302 307 304 304 306 305 308 308 307 306 308 312 311 313 311 310 310 311 310 311 314 313 313 312 314 312 312 312 312 311 308 310 309 311 316 317 315 312 309 314 314 311
299 300 303 309 304 306 307 304 304 305 307 307 306 308 310 312 311 311 309 310 311 312 315 314 314 314 314 313 313 312 311 309 306 311 312 313 314 315 315 311 312 311 312 311
299 300 303 308 303 306 305 306 303 301 302 303 307 308 310 311 312 310 310 311 311 311 312 312 313 314 314 313 312 313 308 306 306 306 310 309 312 312 313 314 314 315 314 314
300 302 307 305 304 307 303 301 301 302 304 302 308 308 309 312 310 309 309 309 309 309 309 307 307 308 308 310 311 312 310 306 303 308 306 306 309 308 311 312 312 313 315 312
301 305 306 303 304 307 301 300 299 302 305 304 306 308 311 311 309 310 307 307 308 307 305 305 305 306 306 307 307 309 309 307 303 302 304 306 306 305 307 310 308 307 308 308
307 306 305 303 303 303 301 301 300 299 302 303 307 307 307 307 305 307 306 304 304 304 307 307 308 308 309 309 307 308 308 308 307 306 304 306 309 308 308 310 309 304 304 302
307 306 303 302 304 304 300 299 301 297 300 297 297 304 305 305 304 306 306 304 304 307 308 308 309 309 308 310 310 307 306 306 306 306 308 311 307 306 306 307 310 301 300 300
306 304 302 302 303 305 299 299 300 297 295 293 296 302 303 302 302 303 305 306 308 306 307 309 307 306 307 309 309 309 308 308 307 307 305 306 306 305 305 306 304 300 300 299
305 303 302 301 301 303 299 298 299 297 293 293 294 294 297 297 300 304 301 304 305 306 309 308 307 306 305 306 306 307 307 306 306 306 310 310 303 305 307 301 299 299 299 299
304 302 300 301 302 302 298 297 296 297 293 293 294 294 295 295 295 297 298 301 302 303 304 304 303 306 303 303 307 304 308 305 306 305 306 300 297 299 298 297 298 298 298 297
302 301 300 300 302 302 299 297 296 296 291 292 293 293 295 296 296 297 299 297 299 299 297 300 302 306 303 306 305 305 305 303 305 305 304 298 297 297 297 297 297 297 296 296
300 299 300 302 300 298 298 297 297 296 292 294 294 295 295 296 297 297 298 297 297 296 296 298 301 304 299 303 303 303 302 303 302 300 297 297 297 297 296 296 296 296 295 295
299 299 300 300 299 298 297 298 299 297 295 295 294 294 295 295 296 297 297 296 295 296 297 295 299 297 298 296 297 299 299 301 301 302 297 297 297 296 295 295 295 294 294 294
300 299 298 298 298 298 298 296 298 297 296 292 295 294 294 295 296 295 294 294 293 293 295 295 293 294 295 297 298 296 295 294 295 297 296 296 297 294 294 293 293 293 293 292
299 298 297 298 297 298 298 297 296 297 296 293 294 294 294 295 294 293 293 293 292 293 294 294 294 294 292 295 298 295 294 295 295 295 295 296 295 294 292 291 291 291 291 291
299 298 297 297 297 296 295 296 298 299 295 291 291 296 292 294 294 294 291 293 293 292 293 293 294 293 292 296 295 295 294 292 292 292 292 292 292 291 290 291 290 289 288 288
298 296 296 296 297 294 295 296 296 296 294 292 288 291 293 292 294 293 293 292 296 292 295 295 294 295 294 296 295 294 294 294 293 293 292 292 292 290 289 289 288 288 288 288
296 296 296 296 294 294 294 296 293 291 290 289 287 286 293 292 293 295 292 295 294 289 296 293 296 296 294 292 292 292 292 293 292 286 288 289 286 288 287 287 286 286 287 287
296 295 295 294 295 296 293 291 290 291 290 289 287 288 293 293 293 296 294 297 297 299 297 295 294 300 295 292 290 289 289 289 289 290 289 288 287 285 286 287 287 287 286 286
296 295 295 294 292 292 292 291 291 291 291 291 292 292 292 292 292 292 294 294 296 296 295 297 297 294 292 290 290 290 289 289 288 289 288 288 288 288 286 286 285 285 286 286
295 293 292 292 288 289 288 288 288 294 291 289 289 290 290 291 292 294 295 291 292 295 297 297 294 293 292 291 287 289 289 289 288 288 288 288 287 287 287 286 286 286 285 285
293 290 292 292 290 289 290 293 290 289 290 291 289 289 291 292 291 293 288 295 294 289 288 290 288 292 290 289 288 288 287 287 286 285 286 284 285 285 286 286 286 285 284 284
292 289 294 287 291 292 287 283 289 288 291 289 289 289 290 288 290 293 293 293 287 289 290 289 287 288 287 287 287 287 286 281 280 285 284 285 285 284 284 285 285 285 284 284
288 285 287 291 291 289 288 288 290 287 289 287 289 288 287 290 290 290 288 288 289 289 285 287 286 287 286 286 286 286 286 285 285 286 286 285 285 283 283 284 284 284 284 285
287 287 289 290 285 286 287 290 291 289 289 289 287 287 289 289 288 291 287 289 287 286 286 283 286 287 286 285 285 286 286 285 285 285 285 285 285 285 283 280 283 284 284 284

GFSNW_925_thetae_078.txt.gz
Theta_e
300 301 301 301 302 301 303 305 306 305 305 308 308 306 305 308 310 309 311 309 308 307 309 311 312 313 312 309 310 313 310 308 316 316 312 311 313 314 308 310 312 306 307 310
301 302 301 303 301 302 305 304 307 305 306 309 309 305 309 310 310 310 312 312 309 308 310 313 311 312 311 309 310 311 310 307 304 308 308 310 314 314 310 307 306 309 307 310
301 302 302 301 302 302 305 304 306 306 307 304 304 308 309 313 309 310 309 310 310 311 311 310 312 312 312 310 310 312 309 306 307 307 309 310 315 315 312 309 304 311 308 309
302 301 302 302 302 302 303 304 306 305 307 308 305 307 309 312 311 309 308 309 310 311 313 312 311 312 311 311 310 308 307 308 304 307 308 312 313 314 313 309 310 309 311 310
303 302 301 301 302 305 304 305 305 302 301 303 305 308 311 312 310 309 310 309 309 309 310 309 311 311 311 312 309 308 305 304 304 304 305 306 312 310 312 312 312 311 308 311
301 303 305 305 303 305 305 302 301 302 304 303 305 309 311 311 308 307 306 308 307 308 308 306 306 306 306 308 311 308 306 303 302 306 304 306 308 308 311 311 311 311 312 310
307 306 307 304 304 306 304 301 300 302 304 302 305 308 310 309 309 309 305 305 308 307 304 304 305 305 304 305 305 305 306 305 301 302 304 306 305 303 305 309 307 307 308 305
306 305 305 304 306 304 305 300 298 298 301 300 307 309 308 305 303 304 304 303 302 302 303 306 308 306 307 306 305 306 304 305 304 304 302 305 306 306 308 310 309 305 303 301
304 302 303 304 305 305 303 297 298 295 301 301 296 306 307 307 304 304 305 304 303 304 304 305 308 308 308 309 309 306 305 303 305 306 307 312 306 305 304 306 307 301 301 300
307 305 303 302 301 301 300 295 297 295 294 292 295 303 305 302 303 302 304 306 307 304 304 307 306 304 305 308 309 309 308 308 311 310 304 305 303 304 303 308 305 300 299 299
305 305 306 305 304 302 300 296 296 296 292 293 293 294 298 300 302 305 302 304 304 304 307 306 305 305 303 304 304 306 307 305 306 307 309 306 299 304 306 300 298 298 298 298
303 304 304 305 304 303 301 297 296 296 292 293 293 293 294 294 295 297 297 300 302 302 303 302 302 305 300 301 306 301 306 303 305 304 304 298 297 299 297 296 297 297 297 296
303 302 302 302 302 303 302 297 296 296 291 292 292 293 295 295 295 296 300 297 298 299 296 298 300 306 300 303 302 303 303 300 303 304 301 299 298 297 296 296 296 296 295 295
301 301 301 301 302 301 300 298 296 295 292 295 294 294 294 295 296 297 297 297 296 295 294 297 300 304 298 301 301 301 301 301 301 301 298 297 296 296 296 295 294 294 293 294
301 301 301 301 301 301 300 299 297 296 295 295 294 293 294 295 296 296 297 297 295 295 297 294 298 296 297 293 296 298 297 300 302 303 298 297 297 295 294 294 293 292 293 291
300 300 301 298 298 298 299 295 297 296 295 293 293 292 293 295 295 294 293 293 292 292 296 294 293 292 294 297 299 296 293 293 294 297 294 294 295 294 293 292 292 291 291 289
300 300 299 298 297 298 296 296 296 295 295 292 290 291 292 294 293 292 292 292 291 292 293 294 293 293 291 295 298 295 293 295 295 294 294 296 294 293 292 290 290 289 289 288
299 298 298 297 297 297 296 297 296 295 293 290 291 292 291 293 294 294 290 293 292 292 292 292 293 292 292 296 295 294 294 293 292 292 291 290 291 289 289 288 287 287 286 286
298 297 297 297 297 294 295 297 296 295 293 290 290 292 291 292 293 293 293 292 296 292 294 294 293 294 295 295 293 293 292 293 293 291 291 290 290 288 287 286 286 286 285 285
297 297 296 294 294 295 296 296 292 291 291 290 287 287 291 290 291 293 293 293 295 292 295 292 295 295 294 292 291 292 292 291 290 285 286 288 285 287 286 286 285 284 284 285
297 293 293 294 295 295 291 291 290 291 291 292 289 289 293 292 293 294 293 290 292 292 294 294 290 293 294 290 290 289 288 288 289 288 289 288 286 283 285 285 286 285 285 284
296 295 295 294 291 289 289 287 290 291 292 290 291 291 291 291 291 293 292 291 289 294 292 290 290 291 291 289 289 288 286 287 288 288 287 287 287 286 285 284 284 284 285 284
295 293 291 291 288 288 288 288 287 291 291 291 291 291 290 290 291 290 288 289 291 293 295 289 290 290 291 289 285 288 287 288 288 287 287 287 286 285 285 284 285 284 284 284
294 292 293 291 287 289 290 290 292 291 291 290 289 290 291 291 290 290 288 295 293 291 288 290 286 289 291 288 287 287 287 286 286 284 284 284 285 284 285 284 284 283 283 283
294 290 291 289 289 288 286 284 287 287 289 288 288 288 289 287 290 292 294 294 290 290 291 288 284 284 287 287 286 286 285 280 280 283 281 282 282 281 282 284 284 284 283 283
289 284 284 288 287 290 290 284 289 286 288 286 288 287 286 289 290 290 291 290 290 291 286 285 285 285 286 286 286 285 284 284 283 283 283 283 282 282 282 283 283 283 283 282
290 284 287 290 289 291 291 289 289 287 289 288 287 286 289 287 286 291 286 289 288 284 283 283 286 287 285 284 284 284 284 283 282 282 282 282 282 281 280 278 282 283 283 283

GFSNW_925_thetae_084.txt.gz
Theta_e
302 303 303 303 303 304 302 303 305 304 303 306 306 310 307 307 311 311 311 310 310 310 311 314 314 315 315 312 312 314 312 317 321 317 313 311 315 316 313 318 317 313 316 314
303 303 303 303 303 304 303 304 302 302 305 309 309 307 309 310 312 312 313 311 309 310 313 314 313 314 313 312 313 314 312 315 321 319 315 314 317 314 313 312 314 314 317 315
307 306 305 303 301 303 303 306 306 303 305 305 307 309 311 313 310 310 311 311 311 312 313 312 313 313 313 311 312 309 309 312 313 316 315 314 318 316 315 314 319 315 314 314
307 306 306 302 302 304 304 306 307 306 309 308 308 308 311 312 312 310 309 312 312 313 313 312 313 312 311 311 310 310 311 314 310 310 310 314 315 316 316 315 313 316 313 314
307 306 304 301 304 304 304 307 307 305 306 306 307 308 312 312 310 310 311 312 310 311 312 311 312 312 313 313 312 312 309 315 310 312 309 312 314 314 315 314 313 313 312 313
303 302 301 303 304 305 306 303 302 305 305 306 307 310 311 311 310 309 307 309 311 312 310 309 309 310 310 310 313 311 311 312 314 316 309 310 313 309 312 314 313 313 315 312
303 303 304 305 304 304 304 302 303 304 305 306 307 309 310 310 308 310 307 307 311 307 305 305 308 309 309 310 309 308 311 310 311 316 311 317 308 305 307 308 311 310 311 309
304 304 305 305 304 304 304 299 301 303 305 305 308 309 308 307 307 307 308 306 304 304 306 311 311 311 312 311 309 309 309 311 313 317 314 309 308 308 309 311 311 308 309 306
304 304 304 302 302 301 300 297 298 303 306 304 299 306 307 310 310 309 308 307 306 306 308 309 311 312 310 312 311 309 309 310 313 312 315 313 310 307 306 307 311 306 305 306
304 303 302 301 301 300 300 297 297 300 302 297 298 306 307 304 306 309 307 308 309 306 310 310 310 310 307 310 310 311 311 311 313 313 313 311 306 305 304 311 309 304 304 304
304 304 303 302 301 300 300 296 298 299 300 296 295 296 301 303 305 310 307 308 309 310 312 310 309 309 308 308 307 309 310 311 311 310 311 310 304 305 309 306 301 303 302 302
302 302 304 304 304 302 298 297 297 297 298 297 293 294 294 294 296 302 302 305 306 307 310 308 307 308 306 307 310 304 309 308 310 309 309 303 302 304 301 300 302 302 302 300
302 302 302 303 303 303 299 297 297 297 298 296 296 297 294 294 294 295 305 303 302 304 301 307 307 310 306 309 309 307 305 303 308 307 305 304 302 300 299 299 300 299 298 298
301 302 302 302 302 300 300 297 296 296 298 304 299 294 295 295 296 295 296 298 298 299 300 306 308 309 303 307 304 306 306 304 307 307 305 302 301 300 300 298 297 296 296 296
301 302 301 300 301 300 298 297 296 296 298 302 298 294 294 294 295 296 296 298 300 302 305 307 308 302 303 300 301 306 303 307 308 308 303 303 303 299 298 298 296 294 294 294
301 301 301 299 298 300 299 299 296 296 295 300 302 294 295 294 294 294 295 295 296 299 303 303 299 296 301 305 306 304 301 300 300 303 298 298 297 297 296 296 294 293 293 292
301 300 300 299 297 298 297 298 296 295 295 298 298 299 295 293 294 294 296 294 295 298 298 300 300 299 299 303 306 303 299 298 297 296 297 298 297 298 295 294 292 291 290 289
301 300 299 297 297 298 296 296 295 294 294 295 297 298 296 293 297 299 294 297 297 296 297 295 298 296 297 302 302 297 296 297 296 296 295 293 294 292 292 290 289 289 289 289
299 298 297 296 296 296 295 296 295 294 294 299 297 301 301 294 295 295 296 296 301 295 298 297 297 299 302 302 300 297 296 297 296 292 292 292 292 291 290 289 289 288 289 288
298 297 296 297 294 295 297 295 296 296 294 293 298 294 299 296 296 297 298 296 300 301 298 294 297 301 299 296 295 296 296 295 293 292 291 291 290 290 289 289 289 288 288 287
299 295 296 294 295 294 293 296 296 294 295 294 293 295 297 294 299 300 296 298 296 300 299 299 300 300 298 294 294 293 294 293 291 290 289 289 289 289 289 289 288 288 287 287
296 295 294 294 293 293 294 294 292 293 295 293 296 295 295 294 293 298 295 298 295 301 295 298 301 300 295 293 292 291 292 291 289 289 289 288 288 288 287 287 286 286 285 284
295 293 293 295 292 294 295 295 294 293 294 293 294 296 294 293 294 295 295 297 299 294 297 300 299 294 293 292 291 289 288 288 289 288 288 287 287 286 286 286 285 285 284 284
296 297 297 297 296 293 295 295 296 293 293 293 294 293 295 294 296 294 296 295 296 296 296 299 297 294 293 291 289 289 288 288 288 285 283 283 283 283 283 283 283 282 283 283
297 294 298 296 295 290 290 288 290 291 292 292 293 293 293 294 294 294 295 295 296 296 299 298 293 290 291 290 288 288 288 285 285 283 282 280 281 282 282 282 281 281 281 281
294 292 292 289 290 291 291 290 291 291 292 291 293 294 294 297 295 295 296 295 297 301 295 293 289 289 289 289 288 286 285 284 283 282 281 281 280 280 280 279 279 279 279 280
295 293 289 290 290 294 293 291 291 290 293 296 294 294 298 291 294 295 294 296 299 293 290 290 290 289 288 286 285 284 283 282 282 280 280 279 279 278 279 279 278 278 278 279

GFSNW_925_thetae_087.txt.gz
Theta_e
307 305 304 304 305 304 305 305 306 303 303 306 308 312 309 309 313 313 312 311 310 312 313 315 315 315 316 313 313 315 314 318 321 319 315 314 316 316 315 318 318 317 317 317
308 305 304 304 303 304 304 303 304 303 305 310 311 309 312 310 314 313 313 311 311 312 314 315 315 315 314 313 315 315 314 317 323 321 317 315 318 316 315 314 318 317 321 318
307 306 303 302 303 304 306 307 306 304 306 307 310 311 312 314 312 311 311 312 313 313 313 313 315 315 314 313 313 310 313 315 316 319 318 316 318 317 315 316 320 315 317 317
307 305 302 301 303 304 307 308 307 307 310 309 309 312 312 313 313 312 311 312 313 313 313 314 313 313 313 312 312 312 314 317 313 313 313 315 316 316 316 317 314 316 315 316
306 304 301 303 304 305 308 309 309 308 308 308 310 312 312 312 313 312 312 313 312 312 313 312 313 312 313 313 314 314 313 319 313 318 312 314 314 314 316 316 315 314 314 315
303 302 304 304 304 305 308 306 306 308 307 308 310 312 312 312 312 311 310 312 312 313 312 312 312 312 312 312 314 314 314 315 318 319 312 313 315 311 313 315 315 315 316 314
305 305 305 303 303 305 307 305 306 307 308 309 310 312 312 311 311 312 310 310 312 310 308 309 311 312 312 312 312 311 313 314 315 319 314 320 310 308 309 310 312 313 313 312
304 303 301 300 300 300 303 301 305 307 308 309 311 311 311 311 310 310 311 309 308 307 309 313 312 312 313 312 311 312 312 313 316 319 315 312 310 309 311 312 312 310 312 309
303 302 301 301 300 299 300 299 301 307 308 308 307 311 310 312 312 312 310 308 308 309 310 310 312 313 311 312 312 311 311 312 314 314 316 314 312 309 308 309 312 308 309 309
304 304 303 303 302 299 300 299 298 305 307 303 303 310 311 308 311 312 310 310 311 309 312 311 311 311 309 311 310 311 312 311 314 314 314 313 309 307 307 312 311 308 308 308
303 304 304 304 304 300 299 299 298 302 305 301 299 300 306 307 309 312 310 311 311 313 314 311 311 310 310 309 309 310 310 311 311 311 312 311 307 307 310 307 304 306 305 305
302 302 302 304 305 305 300 301 298 299 302 300 296 296 296 297 299 306 307 309 310 311 313 311 310 310 309 309 309 307 310 309 311 310 311 307 306 307 305 304 305 304 304 303
302 302 302 303 304 305 303 298 297 301 303 300 299 300 296 295 296 296 308 307 306 308 305 310 311 311 309 309 309 309 308 306 309 309 308 307 306 304 303 303 303 302 301 301
302 301 301 301 302 303 302 298 297 299 302 308 303 296 297 295 296 296 298 301 301 303 305 310 311 310 307 309 307 308 308 307 309 309 308 306 305 304 304 301 300 300 299 298
300 301 301 299 300 301 299 297 296 296 300 305 303 297 296 296 297 298 298 300 304 306 309 311 311 307 306 305 305 308 306 308 309 307 307 307 306 303 302 301 299 298 297 296
298 301 301 298 298 300 300 302 296 296 296 303 305 298 297 296 296 298 298 299 301 304 307 308 305 300 304 309 308 307 307 305 306 307 302 302 300 300 299 300 298 296 295 295
299 301 301 299 297 298 300 301 299 296 295 301 305 303 297 295 296 298 299 298 300 302 305 304 305 303 303 307 308 307 304 304 302 300 300 301 299 301 298 297 295 294 293 292
300 300 300 298 297 297 298 296 296 296 297 299 304 303 299 295 300 302 297 301 300 301 303 299 302 300 301 306 306 303 301 300 300 299 299 296 297 296 296 294 292 291 291 291
300 298 297 296 297 299 298 296 295 295 297 302 300 304 305 296 298 299 299 299 303 298 302 301 300 303 305 305 305 302 299 299 299 298 295 294 294 294 293 292 291 290 290 291
298 297 298 300 297 296 296 297 299 299 298 297 300 299 302 299 299 301 301 300 304 305 302 298 299 303 303 303 301 301 299 298 296 294 294 293 293 293 292 291 290 290 290 289
299 298 299 296 295 296 296 300 301 299 300 298 297 299 300 296 302 303 300 303 302 304 303 301 304 303 302 300 298 297 298 296 295 293 292 292 292 292 290 290 290 289 289 289
299 297 295 295 296 297 298 301 296 296 300 295 298 297 298 297 296 300 299 302 299 304 298 300 303 305 298 297 296 295 296 294 292 291 291 290 289 289 289 288 288 287 287 286
295 296 297 297 297 299 299 300 300 298 296 296 296 298 297 295 296 298 298 300 302 297 300 302 304 299 296 295 294 293 294 292 290 290 289 288 288 287 286 286 286 285 285 285
299 300 299 300 300 298 302 301 302 297 296 296 297 297 298 296 297 298 299 299 297 299 299 301 304 298 296 294 293 291 290 290 289 287 285 285 285 284 284 284 284 283 283 283
298 298 301 302 300 296 296 294 294 294 295 295 295 296 296 297 298 296 297 297 298 299 303 305 299 296 294 292 291 291 290 289 287 286 284 282 282 283 284 283 281 281 281 280
297 297 297 295 295 298 295 295 295 294 295 295 296 297 297 299 298 297 298 299 301 305 300 298 293 293 293 291 290 290 288 287 285 284 283 282 281 281 281 280 280 280 279 279
298 298 296 297 295 300 297 295 295 293 295 299 298 298 300 294 297 298 299 300 303 298 295 293 293 293 292 290 288 286 285 284 284 283 282 281 280 279 280 280 279 278 279 278

GFSNW_925_thetae_093.txt.gz
Theta_e
303 303 304 305 305 304 303 303 305 303 304 301 308 309 310 310 312 312 310 309 311 311 313 315 314 315 315 312 313 315 313 314 316 317 315 314 314 315 311 312 315 311 314 319
303 303 304 305 305 306 303 304 305 304 305 310 310 311 310 312 313 311 310 311 311 312 312 314 313 314 313 312 313 314 312 311 308 309 309 310 315 313 312 312 310 313 313 316
304 304 304 304 304 305 305 300 299 300 302 303 309 310 311 312 311 310 311 312 311 312 312 312 314 314 313 311 312 312 310 311 310 309 312 312 314 313 313 310 308 313 312 312
302 302 302 304 304 305 308 301 301 302 301 305 308 309 311 312 312 310 309 311 311 311 313 312 312 311 311 311 312 310 311 310 307 310 311 313 312 311 313 313 312 311 312 313
302 301 301 302 307 308 308 303 303 303 304 305 310 308 311 312 311 310 311 311 311 310 312 312 313 312 311 311 310 312 309 309 311 308 310 311 310 308 311 313 313 312 311 313
302 303 302 301 302 307 307 306 305 302 303 304 308 309 311 312 311 310 309 310 310 310 310 308 306 305 307 309 310 310 310 308 305 310 311 310 310 308 309 312 311 313 313 311
303 303 304 301 301 302 305 303 303 301 304 305 309 310 310 310 310 311 310 307 310 308 305 305 306 307 308 310 309 307 310 309 305 304 307 310 309 307 308 309 311 310 310 309
304 304 304 304 301 301 302 301 301 301 303 305 309 310 310 309 308 309 310 308 306 305 307 308 309 309 310 311 309 310 307 309 307 306 305 308 308 308 309 310 310 308 308 308
304 304 304 304 304 301 301 300 302 301 302 304 302 306 309 308 308 308 309 307 306 307 308 307 309 308 309 309 307 308 308 307 307 309 310 312 309 307 307 307 308 307 307 307
302 301 302 303 305 302 301 300 301 303 301 298 301 304 304 304 306 307 308 308 308 307 308 308 307 305 307 309 308 308 306 306 307 308 307 308 307 306 306 309 305 306 305 305
303 302 301 302 304 304 301 300 300 302 298 298 299 299 301 301 302 307 306 307 307 307 309 307 306 305 305 305 305 307 306 305 306 305 307 304 304 305 307 304 303 304 304 303
301 302 302 302 303 304 302 300 299 300 299 299 298 298 298 298 298 299 301 305 306 305 306 305 303 305 302 303 304 305 305 303 306 303 304 303 302 305 302 301 302 302 302 300
299 300 301 301 301 303 302 300 298 302 297 296 296 296 297 297 297 298 303 302 300 304 300 303 305 306 302 305 303 305 304 303 304 305 303 304 303 302 300 301 301 300 299 298
297 299 301 301 300 300 300 299 297 299 299 299 299 297 297 297 297 297 298 298 299 300 299 303 304 306 302 303 303 303 302 303 303 303 303 303 303 300 300 299 298 297 297 297
298 298 300 301 298 299 301 298 297 296 299 298 298 297 297 297 297 298 298 297 298 300 300 297 304 301 302 300 300 300 301 303 304 304 302 302 302 300 298 298 297 297 296 295
298 297 299 301 299 298 300 298 298 296 296 293 297 296 296 297 297 297 298 298 297 298 301 301 299 298 299 301 301 301 300 300 300 302 300 299 298 298 299 297 296 295 294 293
298 297 299 300 300 298 300 299 299 296 296 295 294 295 295 295 296 295 295 296 295 296 298 300 299 298 295 298 305 303 302 300 299 297 297 299 298 298 296 294 294 295 292 291
300 299 300 300 297 297 297 298 296 296 297 294 291 292 294 295 295 296 293 295 294 295 297 296 297 296 296 301 300 302 302 300 297 296 296 297 295 294 294 293 291 290 288 287
301 300 299 297 296 297 298 297 296 296 296 293 289 290 294 293 295 294 295 294 298 294 297 297 297 298 300 301 300 300 298 299 297 293 293 293 294 293 292 290 289 289 287 286
298 297 297 295 297 296 296 298 295 291 290 289 291 289 294 292 293 295 295 295 296 292 298 294 296 298 299 298 298 299 297 296 293 290 291 291 289 290 289 289 287 286 286 286
297 296 293 297 295 296 293 292 293 293 293 292 290 290 293 292 294 297 296 293 292 290 295 295 296 299 299 294 294 296 295 293 292 292 291 290 289 288 287 287 286 285 285 284
299 298 296 295 293 290 289 286 291 292 294 292 292 292 293 293 292 294 295 294 294 295 292 294 297 297 295 292 293 292 291 290 289 289 288 287 287 287 286 285 284 284 283 283
296 295 291 292 289 291 290 290 288 288 290 289 289 289 292 292 292 294 291 292 295 292 289 294 296 298 295 292 291 290 287 288 287 287 287 286 285 285 284 283 283 283 282 281
293 291 292 292 289 291 292 292 289 290 289 290 290 289 292 292 292 293 291 294 292 288 290 294 293 297 294 292 290 289 287 287 286 284 285 285 284 284 283 283 282 281 280 280
294 294 296 294 292 286 286 284 288 287 290 291 291 289 291 290 292 293 291 291 288 291 292 293 293 293 292 291 289 288 287 285 283 281 281 281 283 282 282 281 281 280 279 279
296 296 297 296 291 286 284 282 285 287 290 287 290 289 288 292 290 290 290 287 290 291 292 292 289 292 291 290 289 287 286 285 283 282 281 281 281 281 280 280 280 279 279 279
298 297 296 294 290 288 288 289 290 289 290 290 290 289 292 288 287 290 290 290 291 292 289 287 290 291 290 288 287 287 286 284 283 283 282 281 280 279 279 278 279 278 279 279

GFSNW_925_thetae_096.txt.gz
Theta_e
303 304 305 305 304 303 303 302 299 303 304 303 304 304 310 309 311 311 310 309 310 309 309 313 314 314 314 310 313 313 312 314 314 315 312 313 313 314 311 311 315 311 313 319
303 304 304 304 305 306 303 300 301 303 304 304 305 308 309 310 311 310 310 311 311 311 312 313 312 313 312 311 311 313 311 309 306 307 307 309 313 312 311 310 308 312 313 317
300 301 303 304 304 306 305 298 300 300 300 301 307 309 310 312 310 309 310 310 310 311 311 311 313 313 312 310 311 312 310 309 309 308 310 310 313 310 311 308 308 312 312 313
301 301 301 304 307 308 306 298 300 301 301 304 306 308 309 311 311 309 308 310 310 311 312 311 311 310 309 310 311 310 310 310 306 308 308 310 311 308 310 311 311 310 312 312
303 302 301 302 304 308 306 302 302 301 303 302 307 307 310 311 310 309 310 311 310 310 312 311 312 310 310 311 308 310 307 307 309 305 310 309 311 307 308 311 312 311 311 313
303 304 303 302 302 305 305 305 303 301 302 302 306 308 310 310 310 309 308 309 309 310 310 307 306 305 305 306 309 309 309 307 303 306 308 309 310 308 309 311 311 312 313 311
304 304 304 304 302 302 304 302 302 300 304 304 307 309 309 309 309 310 309 307 309 308 304 304 305 305 305 306 307 305 309 307 303 304 305 306 308 306 307 308 310 309 310 309
303 304 304 304 303 301 302 301 300 299 303 302 307 306 309 307 306 308 309 308 305 303 306 306 307 306 308 309 307 307 306 306 305 305 304 306 307 307 308 309 309 307 308 307
302 301 302 304 304 302 301 301 302 300 302 303 303 305 306 307 305 306 308 306 305 305 306 305 308 306 308 307 305 306 306 305 306 306 308 309 307 306 306 305 305 305 306 306
302 302 302 302 304 304 301 299 301 302 300 298 300 304 306 303 305 305 304 306 307 305 306 308 306 304 305 305 308 306 304 304 306 307 307 307 305 305 304 308 301 304 304 304
301 302 302 301 302 304 302 301 299 301 297 297 298 299 301 301 302 307 305 305 305 305 308 306 305 304 303 305 302 306 304 303 304 304 306 304 303 305 305 301 302 303 302 302
298 300 301 301 301 303 302 300 298 300 299 299 298 298 298 298 299 301 300 304 304 304 305 303 302 305 301 301 305 302 305 302 303 302 303 300 301 302 302 299 301 302 301 300
299 298 300 301 300 300 301 301 298 301 296 296 296 297 298 298 298 297 302 300 301 302 299 301 303 306 301 305 301 303 302 301 304 304 301 301 302 302 300 299 301 300 299 298
299 298 299 301 300 299 300 298 297 299 298 298 299 297 297 298 297 297 297 297 298 298 297 301 302 305 301 303 302 301 301 302 303 301 301 300 300 299 300 299 297 297 297 297
299 298 298 300 300 298 299 299 296 296 298 298 297 296 297 297 297 297 297 297 297 298 299 296 302 300 301 299 298 299 300 303 304 305 301 301 300 300 298 297 297 296 295 294
298 298 297 299 300 298 299 297 297 296 297 292 295 295 295 296 296 296 297 296 296 296 298 299 298 297 299 301 301 300 299 299 301 303 298 299 299 298 296 297 296 294 293 292
298 298 297 299 300 299 299 298 298 296 296 294 293 292 294 295 295 294 294 295 294 295 296 297 297 298 296 297 306 303 300 299 298 297 296 299 297 298 295 295 293 294 291 290
298 298 299 300 298 297 297 297 297 296 296 292 289 290 292 294 294 296 292 294 293 294 295 295 296 295 295 300 300 300 299 299 298 295 296 297 294 293 292 292 290 288 287 286
301 301 300 298 296 296 298 297 296 296 295 290 288 289 291 292 294 293 294 292 297 293 296 296 296 297 299 300 299 299 299 299 298 293 294 294 294 292 291 289 287 286 286 286
300 298 296 294 297 296 296 297 293 290 288 288 291 287 294 292 292 294 294 294 295 292 296 293 296 297 296 296 295 295 296 296 292 291 292 291 290 291 289 288 286 286 286 285
297 295 293 296 295 296 291 292 292 293 294 291 289 290 293 291 293 296 295 292 290 290 294 295 294 296 297 295 292 292 291 294 293 293 292 291 290 289 286 286 286 285 284 284
298 297 296 295 292 289 290 287 290 292 295 291 292 292 293 292 291 294 293 293 294 294 290 292 293 293 294 293 292 290 290 291 291 290 289 288 288 287 286 285 284 283 283 282
297 294 290 291 291 292 291 292 288 286 289 289 289 290 291 291 292 292 290 292 294 290 287 293 292 292 293 292 291 289 287 288 287 287 287 286 285 286 285 283 283 283 282 281
295 294 293 292 291 293 294 292 291 290 288 289 288 289 292 292 292 292 290 293 291 289 293 292 289 292 293 291 290 288 287 287 286 285 285 285 284 284 283 283 282 282 280 280
297 293 296 293 293 291 289 285 288 287 290 290 290 289 290 289 291 293 290 291 293 290 292 289 288 292 290 290 289 288 286 284 284 283 282 282 283 283 282 281 281 280 280 279
295 295 296 294 291 292 290 285 285 286 290 287 289 288 288 291 289 290 290 287 289 291 287 288 287 290 289 288 288 287 286 285 283 283 282 282 282 282 281 280 280 279 279 279
297 297 295 293 292 296 293 289 290 289 291 292 289 289 292 289 285 292 289 289 290 288 288 286 289 289 288 287 287 287 286 284 283 282 282 282 281 280 279 279 279 279 279 279

GFSNW_925_thetae_102.txt.gz
Theta_e
302 301 302 305 304 306 302 300 303 306 306 303 299 306 308 309 310 309 310 308 307 308 308 310 310 312 310 308 310 312 311 313 313 310 310 308 312 312 309 308 310 309 313 312
303 303 301 302 307 307 302 298 299 306 307 305 301 305 308 309 309 308 309 310 309 308 308 311 309 310 310 308 309 311 310 307 304 304 304 307 311 310 309 308 305 309 311 313
304 304 303 302 303 307 303 298 302 301 298 299 305 306 306 309 307 308 307 308 308 309 310 308 310 311 310 308 309 312 309 307 307 305 306 307 309 309 307 307 302 309 308 310
304 304 304 303 302 306 304 297 300 300 301 303 303 305 307 309 309 307 306 309 308 309 310 310 310 309 308 309 309 310 307 309 304 305 305 306 307 308 307 308 307 308 308 309
303 303 304 304 302 305 304 301 301 298 299 300 304 305 307 310 309 308 309 310 308 308 310 309 310 309 308 309 307 308 305 306 306 303 307 306 308 306 306 305 310 307 309 308
302 302 303 304 302 304 303 301 301 299 300 302 304 306 308 308 307 307 307 307 307 307 308 306 305 304 304 306 308 306 306 304 302 306 304 305 307 305 306 307 308 308 310 308
301 301 302 303 303 301 302 301 299 299 303 302 305 307 306 307 307 308 307 306 307 306 303 302 303 302 302 302 302 303 305 305 302 304 303 302 303 304 305 307 306 306 307 307
302 302 302 301 304 302 301 301 300 298 301 300 304 306 306 306 305 305 306 306 304 302 303 304 304 302 305 306 304 303 302 304 304 303 301 304 304 305 306 306 306 304 306 306
299 301 302 302 301 303 301 300 302 299 301 299 303 305 305 304 304 304 304 304 303 303 302 303 306 303 304 305 302 301 302 302 305 304 306 304 300 305 305 303 303 302 305 304
298 298 301 301 301 302 303 299 300 301 299 297 300 302 304 301 302 303 301 304 305 303 303 307 305 303 302 305 304 304 304 302 306 306 305 305 302 304 303 306 299 303 303 303
294 298 299 300 301 300 302 301 298 300 296 296 297 299 300 300 300 305 303 304 302 303 306 306 304 303 301 303 301 302 302 301 302 302 305 305 302 304 305 301 301 303 302 301
296 296 298 299 301 300 301 301 298 297 298 298 299 299 300 300 301 300 299 302 301 302 303 302 301 305 298 299 303 298 302 300 301 302 302 300 299 301 300 298 300 301 301 300
302 294 298 298 300 300 299 300 300 298 295 296 296 297 298 298 298 299 301 298 298 300 297 299 301 305 300 304 299 301 300 297 301 302 302 299 298 297 297 298 298 299 298 298
303 295 297 298 299 300 298 299 298 297 295 296 297 297 296 297 297 297 298 298 297 296 295 299 300 303 300 301 301 299 300 298 300 299 300 298 299 297 297 298 297 298 297 297
304 298 297 298 297 300 300 297 298 297 296 295 295 295 295 296 296 296 296 297 295 296 297 294 301 298 299 297 296 297 298 301 301 304 301 299 300 298 298 297 297 296 296 295
304 300 296 299 297 300 299 296 298 296 296 292 295 293 294 294 295 295 295 295 294 294 296 297 295 294 298 301 300 299 298 298 300 302 300 297 297 296 297 297 296 295 294 293
304 300 295 299 298 299 298 297 298 296 295 292 292 293 292 294 294 292 292 293 292 294 295 295 295 296 295 299 305 303 298 298 297 296 296 296 296 298 296 295 294 296 292 291
304 298 296 299 299 299 297 298 297 295 295 291 288 291 291 293 293 294 290 292 291 292 294 293 297 296 296 302 302 299 298 297 295 294 293 295 293 295 294 292 290 289 288 286
303 296 298 300 299 295 296 296 296 295 294 292 289 290 293 291 292 292 292 291 296 292 295 295 295 298 300 300 299 298 297 297 295 293 291 292 292 293 291 290 289 289 286 285
298 300 300 298 296 296 296 295 292 290 289 288 291 287 292 291 291 293 293 293 295 290 295 292 297 299 297 297 295 294 294 292 290 288 291 292 290 291 290 289 287 287 286 285
301 297 296 295 295 295 292 294 293 293 294 293 291 290 292 290 294 296 294 292 292 292 294 294 293 295 295 293 293 292 290 288 288 289 290 291 291 289 289 288 287 286 285 285
300 297 296 294 293 293 296 295 291 293 296 292 293 291 292 291 290 294 293 293 292 297 289 293 297 294 293 292 292 291 288 287 289 290 290 290 290 290 288 286 284 285 286 285
297 295 294 295 295 293 294 294 292 296 295 292 292 293 292 290 292 292 291 292 296 289 291 295 294 292 291 291 289 289 288 288 288 288 288 288 288 288 287 284 285 285 283 283
296 297 297 296 292 292 293 294 294 293 292 292 293 292 293 292 293 292 291 294 290 293 296 295 293 292 292 290 289 289 289 287 287 282 283 285 286 285 286 286 285 283 282 282
296 296 300 297 292 286 285 286 288 288 292 291 292 292 293 291 291 292 292 292 294 293 294 293 293 291 290 290 288 288 287 284 283 280 279 280 283 283 283 284 284 283 282 281
295 295 297 291 286 284 285 284 289 290 293 291 292 293 294 295 292 291 292 295 297 297 290 292 289 290 290 289 288 288 286 285 284 282 282 282 282 282 282 282 282 282 281 281
296 297 295 290 286 289 291 291 292 291 293 296 294 293 296 290 289 291 293 296 298 291 289 288 288 291 291 288 287 287 287 285 284 284 283 283 283 283 281 277 281 281 281 281

GFSNW_925_thetae_105.txt.gz
Theta_e
304 304 302 301 305 306 302 300 303 305 304 303 298 307 308 308 309 308 309 307 306 307 307 310 310 312 309 307 309 312 311 313 312 309 308 307 310 311 307 311 311 310 311 314
304 304 304 302 302 306 302 299 300 305 306 304 298 305 307 308 308 307 308 309 308 307 308 310 310 309 309 307 309 311 310 310 310 303 303 306 310 310 308 306 305 310 312 313
303 304 304 303 302 306 302 298 301 301 298 298 304 306 307 309 306 307 307 308 307 308 309 307 310 311 309 307 309 311 310 307 307 307 305 306 309 308 307 307 306 308 309 309
303 303 304 303 302 305 303 296 300 299 301 304 303 305 307 309 309 306 305 308 308 309 310 309 309 308 308 308 309 310 307 308 303 306 306 306 308 308 306 307 306 310 308 308
302 302 303 304 302 305 304 300 301 296 298 299 304 305 308 309 308 308 309 309 308 307 309 308 309 308 307 307 306 307 304 307 305 303 306 306 307 306 305 306 306 306 306 308
302 302 302 303 302 304 303 300 299 299 299 300 303 304 307 307 307 306 306 306 306 307 305 305 304 304 304 305 307 305 304 304 303 306 303 303 304 304 305 306 305 307 310 308
301 302 302 302 303 301 302 301 298 299 302 302 304 306 306 306 306 306 306 305 306 305 302 302 302 302 301 301 302 302 303 304 302 304 303 299 300 303 303 305 306 305 306 306
296 300 301 302 302 303 301 301 300 297 300 299 302 305 305 305 303 305 305 305 302 301 301 304 303 301 303 304 302 301 301 303 304 303 302 303 301 304 305 306 305 303 304 305
295 297 300 301 301 302 301 299 302 299 300 298 303 304 304 304 303 303 304 303 302 301 301 302 305 302 302 303 302 299 301 301 305 303 305 305 298 303 303 302 303 300 302 304
302 295 298 300 301 300 301 299 300 300 299 297 299 302 303 300 301 302 301 303 305 302 303 306 304 302 301 303 304 305 304 302 306 306 305 305 301 303 302 306 300 302 303 303
304 298 297 298 300 300 300 301 299 299 296 296 296 299 300 299 299 304 301 303 301 301 306 305 304 303 300 301 300 300 302 301 302 302 305 305 300 303 305 301 299 301 301 301
304 303 295 298 298 300 299 300 298 297 297 296 298 300 300 301 301 299 298 301 300 301 302 301 301 305 297 299 303 297 302 299 300 301 303 300 298 301 300 297 300 301 301 299
304 304 298 298 298 300 299 299 299 298 293 295 295 296 298 298 299 301 301 297 298 299 296 298 300 305 299 304 299 300 299 296 299 301 301 299 297 296 297 297 298 298 298 299
304 304 302 296 298 299 300 299 298 297 294 295 296 297 296 296 297 298 299 298 297 295 295 298 300 303 299 301 301 298 300 297 299 298 299 299 299 296 297 297 296 296 296 297
304 304 303 296 299 298 300 300 300 298 296 296 295 294 294 295 295 296 296 297 295 295 296 295 301 297 298 296 296 298 297 301 300 304 300 299 299 298 297 298 298 296 295 295
304 304 304 297 298 298 300 296 298 297 295 292 296 292 293 294 294 295 294 294 293 293 296 296 294 294 297 301 299 299 297 298 300 302 299 297 296 295 295 296 297 295 294 294
304 304 304 297 299 298 299 298 298 296 295 292 293 294 292 294 293 291 291 293 292 293 295 295 295 295 295 298 304 302 297 297 297 295 296 296 296 297 294 293 293 296 294 293
304 304 303 297 299 299 298 297 298 296 295 291 291 294 290 292 293 294 290 292 291 292 294 294 296 295 296 300 300 299 298 297 295 295 293 294 293 291 291 293 291 291 290 287
304 303 297 299 300 297 296 296 296 295 294 294 291 294 294 291 292 292 292 291 296 291 295 296 295 298 300 300 298 298 297 298 298 294 292 290 290 291 291 291 290 290 289 286
303 298 300 299 297 296 296 295 293 290 291 290 293 291 293 292 292 294 293 292 295 291 296 293 297 300 298 297 296 296 296 294 293 289 291 292 290 292 292 290 289 289 287 285
299 298 297 295 295 295 293 296 296 293 293 293 292 293 295 291 295 296 294 294 293 293 295 296 296 298 294 294 294 295 292 291 289 289 290 290 291 289 291 290 288 288 287 285
301 298 296 295 293 294 296 297 294 294 295 293 292 292 294 292 292 297 293 294 293 298 290 296 298 297 293 292 293 291 289 288 288 288 289 289 289 290 289 288 286 286 287 286
297 296 294 295 295 296 296 294 290 291 293 290 290 291 292 291 293 295 294 294 297 289 293 296 297 293 292 292 291 290 288 287 288 289 289 289 289 290 289 286 287 286 284 285
296 296 297 297 297 294 293 293 292 290 290 291 291 290 292 292 294 294 293 294 290 293 296 297 295 292 294 291 289 289 290 288 288 286 284 285 287 287 287 287 286 285 283 283
296 296 300 296 294 285 284 282 286 288 290 291 291 289 291 291 292 293 291 293 293 293 297 297 293 292 292 291 289 288 288 285 284 281 281 281 284 285 285 285 285 284 284 283
295 295 299 293 288 284 285 283 289 290 292 291 293 293 292 293 291 291 291 290 293 298 295 295 289 291 290 290 290 288 287 287 285 283 283 283 282 283 284 284 284 283 283 282
295 296 295 290 285 291 289 290 291 291 294 296 295 295 294 289 286 289 290 291 297 298 295 290 290 290 289 289 289 288 287 286 286 285 284 283 284 283 282 279 282 282 282 282

GFSNW_925_thetae_108.txt.gz
Theta_e
303 304 304 301 303 305 303 305 315 304 304 314 310 313 310 309 308 309 310 308 309 311 311 313 313 314 313 310 311 313 313 314 315 314 311 309 312 313 313 314 315 315 316 316
303 303 304 302 302 305 303 309 309 304 305 317 313 309 310 309 310 309 310 311 310 309 311 313 312 312 311 310 312 313 313 313 316 310 310 309 312 313 312 311 311 315 316 315
302 302 303 303 302 305 302 307 316 311 307 305 310 311 310 311 308 309 309 310 309 310 312 310 313 313 311 310 311 311 312 312 314 312 310 309 311 311 312 312 315 312 313 312
302 302 303 303 302 305 302 306 308 304 313 310 309 309 310 311 311 309 308 310 311 312 312 311 312 310 310 310 311 312 313 315 313 313 312 312 312 312 311 312 312 312 311 311
301 302 302 303 302 304 304 308 308 302 305 304 308 308 311 310 310 309 310 311 310 310 312 311 311 311 310 310 310 312 310 315 310 311 310 310 310 310 310 310 311 310 310 311
296 300 301 302 303 303 304 300 300 305 303 307 308 309 309 309 309 308 308 308 309 309 309 307 309 308 308 308 310 310 310 312 312 313 309 309 310 308 308 309 309 310 311 310
295 297 300 301 302 301 302 301 300 305 307 306 308 308 308 308 308 309 308 308 309 307 305 306 306 307 307 308 308 308 310 310 310 314 311 309 305 305 307 308 308 309 309 310
303 295 298 300 301 302 300 301 301 304 305 304 304 305 308 307 306 308 308 307 306 304 306 309 308 306 306 306 306 307 307 310 313 314 311 309 305 306 307 308 308 307 309 309
304 299 296 299 300 301 302 299 300 302 306 305 305 307 307 309 308 307 306 304 303 305 308 308 308 306 304 305 305 304 306 308 310 309 311 308 303 305 305 306 308 304 304 307
303 304 296 297 299 300 300 300 299 301 305 303 303 306 306 305 306 308 305 306 307 305 310 309 308 308 303 306 306 309 310 308 311 310 310 311 308 306 304 308 306 304 306 308
303 303 303 295 298 300 300 300 300 299 302 302 299 301 304 303 305 307 305 306 305 307 310 310 309 308 307 305 305 306 309 310 310 310 311 312 305 305 307 306 303 304 305 306
304 304 304 298 298 298 300 300 299 297 299 302 298 299 300 300 302 305 303 306 305 308 309 307 307 309 305 306 308 301 306 306 307 308 309 306 304 308 305 303 304 304 304 305
305 304 304 303 296 298 300 299 298 298 299 301 298 301 298 299 299 301 305 303 303 304 302 307 308 310 307 309 307 306 304 301 304 303 306 304 304 303 302 302 302 302 302 302
305 304 304 303 298 298 298 300 299 297 297 302 303 297 296 297 297 298 299 299 298 299 301 306 308 309 306 308 307 306 307 302 305 305 305 305 304 304 303 302 301 300 301 300
306 305 304 304 299 298 298 299 300 299 297 302 301 295 294 295 295 296 296 298 300 302 304 305 306 305 304 304 302 306 304 305 306 307 306 305 305 303 301 302 302 301 301 301
308 305 304 304 299 298 298 299 298 298 296 298 303 295 294 293 294 295 295 297 298 300 303 304 303 299 304 308 308 306 305 305 305 306 305 303 303 301 300 300 300 298 298 299
308 305 304 304 299 299 298 299 298 297 296 297 300 300 293 293 293 294 295 294 297 299 301 300 302 301 302 304 306 306 304 303 303 303 302 302 300 302 299 297 297 296 297 296
307 306 305 303 298 299 299 298 298 296 295 294 299 299 294 293 296 297 293 297 296 297 300 297 299 298 301 304 305 304 302 302 301 301 300 301 299 296 296 295 295 296 297 295
306 305 302 299 299 298 297 296 296 296 295 299 296 300 304 292 295 295 294 295 299 296 299 299 299 301 303 303 302 302 301 301 302 299 298 297 296 296 294 294 295 295 296 293
304 302 298 299 298 297 296 295 295 295 295 294 296 296 297 296 296 297 298 295 300 300 299 296 299 301 300 301 301 301 300 300 299 296 298 296 295 296 296 295 295 294 295 292
301 299 298 295 295 295 294 297 297 298 298 296 295 295 296 293 299 300 297 299 298 300 299 299 301 301 300 299 299 300 299 297 297 297 297 294 294 294 295 294 293 292 292 290
301 298 295 294 294 296 298 298 297 297 299 297 296 295 296 294 294 299 295 299 296 300 294 297 299 300 300 297 296 295 296 296 295 292 293 293 293 292 293 293 292 291 290 288
298 296 294 296 297 298 298 298 297 296 296 294 294 295 296 293 294 298 297 298 298 293 296 298 300 301 296 295 295 294 293 292 292 292 291 291 291 291 291 291 290 289 287 286
296 297 298 299 300 298 299 298 299 296 294 294 295 295 296 295 297 297 298 297 294 296 298 299 302 299 298 296 294 293 293 292 292 290 290 290 290 290 289 289 288 287 286 285
297 296 299 299 299 293 292 292 292 291 293 294 295 294 295 296 297 295 295 295 297 297 301 302 302 297 295 295 293 293 293 291 291 290 288 287 287 288 289 288 287 286 285 284
296 296 298 298 296 294 290 291 293 292 294 294 296 296 296 297 296 295 296 297 297 301 299 300 296 295 294 294 294 293 292 291 290 289 288 287 286 287 287 286 285 285 285 284
296 296 297 299 294 300 296 293 293 293 296 299 297 298 300 292 296 295 295 297 300 301 301 297 295 295 295 293 292 291 291 290 290 289 288 287 287 285 284 285 284 284 284 284

GFSNW_925_thetae_111.txt.gz
Theta_e
302 303 303 302 303 305 305 311 318 307 307 317 315 316 311 308 310 310 311 311 312 314 313 314 314 314 314 312 312 314 314 315 317 316 313 314 315 316 315 316 314 315 315 315
302 302 303 302 303 305 306 312 312 310 309 319 316 312 311 311 312 311 312 313 312 312 313 314 314 313 312 312 313 314 314 316 318 315 312 311 312 313 313 314 313 313 312 313
301 302 303 303 303 305 307 311 318 313 312 311 313 313 312 313 310 311 311 312 312 312 313 313 314 313 313 312 313 311 313 314 315 315 312 312 312 312 313 314 315 313 313 312
297 301 302 303 303 305 308 311 312 309 316 312 312 312 312 313 313 311 311 312 312 313 313 313 312 312 312 312 312 313 314 315 314 314 313 312 312 312 312 312 313 314 312 310
295 298 300 303 303 306 308 312 312 308 310 309 312 310 313 312 312 312 312 312 312 312 313 313 313 312 312 311 312 314 313 315 313 313 311 311 311 311 311 311 311 311 312 312
300 296 300 301 303 305 308 305 305 308 307 310 311 311 312 312 311 311 310 310 310 311 310 310 310 310 311 311 311 313 313 313 314 314 311 312 312 311 310 310 310 310 311 310
304 297 297 300 302 302 305 303 305 309 309 309 310 310 310 310 310 311 310 310 310 309 308 308 309 309 309 309 310 310 311 311 312 314 313 315 309 307 307 308 309 309 309 309
304 303 295 298 300 302 302 302 306 308 308 306 307 309 310 309 309 309 310 309 309 307 309 310 309 309 307 309 309 310 310 311 312 314 313 311 309 306 308 309 308 309 309 309
304 304 301 295 298 301 302 300 301 306 308 308 305 307 308 309 309 309 308 307 306 308 310 309 310 308 307 307 307 306 309 310 311 312 312 311 307 308 307 308 309 308 307 307
305 304 304 298 297 298 300 301 300 304 307 306 305 307 307 307 308 309 308 308 309 308 310 311 309 309 306 307 307 310 310 309 311 312 311 310 310 308 307 308 308 307 308 307
306 304 304 303 297 298 300 301 300 301 305 305 302 304 306 306 307 307 308 309 308 310 311 310 311 309 308 307 307 308 311 312 311 310 311 312 307 307 308 308 307 306 307 307
308 306 304 303 301 297 298 302 299 299 300 304 300 301 302 303 304 307 307 308 308 309 311 311 310 310 309 308 308 307 307 308 309 310 311 309 307 308 307 307 306 306 305 305
308 307 305 304 303 298 297 300 299 298 301 303 301 303 301 299 299 301 305 306 306 308 307 310 310 311 309 310 310 309 308 306 306 306 307 307 307 306 306 305 305 304 304 304
309 307 306 304 303 300 298 300 299 298 299 303 304 298 298 297 297 298 301 303 301 304 305 308 309 309 308 309 308 309 309 306 306 307 307 307 307 307 307 307 305 304 303 303
308 308 306 304 304 301 298 299 299 299 299 304 303 299 296 295 296 297 298 300 302 304 306 308 308 308 308 307 308 308 308 308 308 308 307 308 308 306 304 304 304 304 303 302
306 308 307 305 304 302 298 300 298 298 298 299 305 298 295 295 295 297 298 299 301 303 305 305 306 305 307 309 309 308 307 307 307 307 307 306 306 304 304 303 303 303 300 300
305 306 307 305 304 302 299 300 298 298 297 298 302 304 295 295 296 296 297 296 299 300 303 303 304 304 303 307 308 307 307 307 307 307 306 306 305 304 303 303 301 299 298 298
304 304 307 305 302 299 300 300 299 297 295 295 301 305 298 295 298 299 296 299 298 300 302 300 301 301 302 306 305 305 305 305 305 304 304 304 303 300 300 300 299 297 297 298
303 304 304 300 299 300 300 296 296 297 296 301 299 304 310 295 298 298 297 298 299 299 300 300 301 302 303 304 304 304 305 304 303 303 302 302 301 300 300 298 296 296 297 298
303 302 300 299 299 298 296 295 297 295 296 296 299 301 303 298 298 299 300 298 301 301 301 298 300 301 301 302 302 303 303 303 302 300 300 299 299 298 298 297 297 297 297 296
302 300 299 295 296 296 298 299 299 299 299 299 298 300 302 297 302 302 300 302 301 301 303 300 302 303 302 301 302 301 302 302 301 301 301 298 298 297 297 297 296 295 295 295
300 299 295 295 295 296 299 301 299 299 301 301 300 298 298 298 297 301 299 302 298 302 298 298 301 304 302 302 301 299 299 302 300 299 298 297 295 295 295 295 295 294 293 292
298 296 296 297 298 299 301 302 301 300 300 298 296 297 298 296 296 301 300 301 300 296 299 300 302 305 302 300 298 297 296 298 298 296 294 294 295 294 293 294 293 293 292 290
297 298 300 300 303 300 303 303 303 300 298 297 298 298 299 298 298 300 301 301 297 300 301 303 307 305 303 300 298 297 296 295 295 293 293 293 293 293 292 292 292 291 290 289
298 297 301 301 301 301 299 300 296 294 297 297 297 297 297 298 300 298 299 298 299 300 304 308 307 303 298 298 297 297 297 295 294 294 292 291 291 291 291 291 290 290 289 287
297 296 300 300 299 302 296 296 298 295 296 297 298 299 299 300 300 299 299 301 302 306 302 303 302 300 299 297 297 296 296 296 294 293 292 291 291 290 291 290 289 288 288 286
297 298 299 300 301 302 303 299 299 296 297 300 300 300 300 296 298 298 299 300 304 305 302 301 301 299 298 297 295 295 294 294 294 293 292 291 290 289 288 288 288 287 287 286

GFSNW_925_thetae_114.txt.gz
Theta_e
301 302 303 302 304 305 307 312 320 309 308 319 315 316 311 309 311 311 312 312 313 314 313 314 314 314 314 312 312 314 313 314 314 315 313 313 314 316 314 312 313 312 312 313
299 301 303 302 304 304 308 314 313 312 311 321 316 312 312 312 312 312 312 313 313 312 313 314 313 313 312 312 313 314 313 314 311 315 312 311 312 312 314 313 312 312 311 308
296 300 302 303 304 304 308 313 315 316 313 312 313 313 313 313 311 312 312 312 312 312 313 313 314 313 313 311 312 311 312 313 313 312 312 312 312 311 311 312 311 312 311 309
295 298 300 303 304 307 310 312 312 309 319 313 312 312 313 313 314 311 311 312 312 313 313 312 312 312 312 312 313 312 313 313 311 312 312 312 312 311 311 310 311 312 311 310
302 296 299 303 304 309 309 313 312 308 310 310 312 310 313 313 312 312 312 312 313 312 313 312 313 312 311 311 312 312 312 311 311 308 310 310 311 310 310 310 310 310 310 311
304 298 297 300 303 307 308 307 307 308 308 310 310 312 312 312 311 311 311 311 311 311 311 309 308 308 308 309 310 312 312 310 310 311 310 310 311 309 309 309 308 309 310 309
304 304 296 298 302 303 305 303 305 309 310 309 310 310 310 311 310 311 310 309 310 308 307 307 307 307 307 307 307 308 309 310 310 309 308 311 310 307 306 308 308 307 307 307
305 304 303 296 299 301 302 302 305 308 308 306 306 308 309 309 309 309 309 309 308 307 308 309 308 309 309 308 308 307 307 308 310 307 309 310 309 306 306 306 306 306 306 306
306 304 304 301 296 299 303 301 302 306 307 307 305 306 307 307 308 309 308 307 307 307 309 308 309 307 307 308 308 306 307 308 309 309 310 311 308 306 306 307 306 305 306 306
307 305 304 304 300 297 301 301 301 304 306 306 305 305 307 307 307 307 308 308 307 308 309 309 307 307 306 304 306 307 307 308 310 310 310 309 306 306 307 306 304 305 305 305
309 306 305 304 303 298 298 301 300 301 304 304 303 304 305 306 306 306 307 308 308 308 310 309 308 307 306 306 305 308 308 307 307 308 309 309 306 306 305 304 305 304 305 305
309 308 306 305 303 302 298 302 300 299 299 302 303 302 302 302 303 305 305 307 307 307 308 308 307 308 306 306 305 304 304 307 307 308 308 307 305 305 304 305 304 305 304 304
308 309 308 306 304 303 301 299 299 299 300 301 302 303 302 301 301 302 304 304 305 307 304 307 308 309 307 308 307 307 306 304 304 305 304 304 305 304 304 303 303 303 303 302
307 308 309 307 305 304 302 300 300 299 300 301 302 299 299 299 299 299 301 301 302 303 304 306 307 307 305 306 306 307 306 306 305 305 305 304 305 304 304 303 302 302 302 302
306 306 308 308 306 304 304 300 300 299 299 302 300 300 296 296 296 297 298 299 301 302 303 304 306 305 306 305 306 307 306 306 307 307 305 304 304 304 304 303 303 302 302 302
304 305 306 307 306 304 303 299 299 298 299 298 303 297 295 295 296 297 298 298 299 301 302 303 303 302 304 305 306 305 304 305 305 306 304 303 303 302 302 301 301 302 301 300
303 304 305 306 306 304 301 302 299 299 299 298 300 301 295 295 296 296 296 297 298 298 302 302 301 302 301 302 306 305 304 304 304 304 303 304 303 302 301 301 301 301 299 298
303 303 303 305 305 302 302 302 300 298 296 295 300 300 297 295 297 297 297 298 297 298 299 300 300 300 301 304 304 303 303 303 303 303 301 302 301 300 300 299 298 297 296 295
301 301 302 303 301 300 300 298 297 297 296 299 299 302 305 294 297 295 295 297 298 297 300 299 299 300 302 302 302 301 301 302 302 301 300 300 301 300 299 298 297 295 293 294
301 302 301 300 298 298 296 295 296 295 295 294 298 298 299 296 296 297 297 297 298 300 299 296 300 300 299 300 300 300 300 300 300 296 297 298 297 297 297 296 295 294 294 294
301 301 299 297 296 296 297 299 299 298 299 297 296 296 300 295 300 301 299 301 298 300 300 299 301 301 299 300 299 298 297 298 299 298 299 297 297 295 295 294 294 293 293 293
300 299 296 296 295 296 299 300 299 299 301 298 299 297 295 296 295 299 298 298 299 300 296 298 298 297 299 298 298 296 296 295 296 298 297 296 296 294 293 292 290 293 294 294
299 297 295 296 298 299 300 302 300 300 297 295 294 294 295 294 294 298 299 299 300 294 297 297 296 298 298 298 296 294 294 294 298 298 297 296 294 294 293 292 293 293 293 292
297 298 300 298 299 300 299 298 298 297 296 295 295 294 296 296 298 299 300 300 296 296 297 297 297 301 300 297 294 295 295 294 294 290 289 291 292 291 293 293 293 292 291 291
296 297 298 298 297 296 295 294 293 291 295 296 294 295 294 295 298 299 300 299 299 297 296 299 301 300 298 297 295 295 295 294 292 290 289 290 289 290 291 292 292 292 291 290
296 296 297 298 298 297 293 292 293 292 294 292 293 299 298 299 298 300 294 298 296 296 297 298 299 297 297 296 295 295 294 294 293 292 292 291 290 289 290 292 291 291 290 289
297 296 295 296 294 294 295 294 295 295 294 294 298 299 297 296 297 297 297 296 297 298 300 294 296 296 298 298 294 294 292 293 293 293 292 291 292 292 290 288 289 290 290 289